Observation data for Amarillo 15 North Northwest on 02/11/2018      Previous  Date  Next       Current Mesonet Observations  Soil Data  Daily Summary Page  Observations in Plain Language
KAM3 110600Z 00009KT M09/M13 A3006 RMK A01 T10871132  RH  070%=      5-min Rain = 0
KAM3 110601Z 36010KT M09/M13 A3006 RMK A01 T10871132  RH  070%=      5-min Rain = 0
KAM3 110602Z 35009KT M09/M13 A3006 RMK A01 T10871132  RH  070%=      5-min Rain = 0
KAM3 110603Z 35011KT M09/M13 A3006 RMK A01 T10871133  RH  070%=      5-min Rain = 0
KAM3 110604Z 35012KT M09/M13 A3006 RMK A01 T10871133  RH  070%=      5-min Rain = 0
KAM3 110605Z 34012KT M09/M13 A3006 RMK A01 T10871133  RH  070%=      5-min Rain = 0
KAM3 110606Z 35012KT M09/M13 A3006 RMK A01 T10871133  RH  069%=      5-min Rain = 0
KAM3 110607Z 36011KT M09/M13 A3006 RMK A01 T10871133  RH  069%=      5-min Rain = 0
KAM3 110608Z 35014KT M09/M13 A3006 RMK A01 T10871133  RH  069%=      5-min Rain = 0
KAM3 110609Z 35011KT M09/M13 A3006 RMK A01 T10871133  RH  069%=      5-min Rain = 0
KAM3 110610Z 35011KT M09/M13 A3007 RMK A01 T10871133  RH  069%=      5-min Rain = 0
KAM3 110611Z 35011KT M09/M13 A3007 RMK A01 T10871133  RH  069%=      5-min Rain = 0
KAM3 110612Z 35011KT M09/M13 A3007 RMK A01 T10871133  RH  069%=      5-min Rain = 0
KAM3 110613Z 35011KT M09/M13 A3007 RMK A01 T10871133  RH  069%=      5-min Rain = 0
KAM3 110614Z 35011KT M09/M13 A3007 RMK A01 T10871133  RH  069%=      5-min Rain = 0
KAM3 110615Z 35011KT M09/M13 A3007 RMK A01 T10871133  RH  069%=      5-min Rain = 0
KAM3 110616Z 35010KT M09/M13 A3007 RMK A01 T10871133  RH  069%=      5-min Rain = 0
KAM3 110617Z 35009KT M09/M13 A3007 RMK A01 T10881133  RH  069%=      5-min Rain = 0
KAM3 110618Z 35010KT M09/M13 A3007 RMK A01 T10881134  RH  070%=      5-min Rain = 0
KAM3 110619Z 35009KT M09/M13 A3007 RMK A01 T10881133  RH  070%=      5-min Rain = 0
KAM3 110620Z 35008KT M09/M13 A3007 RMK A01 T10881133  RH  070%=      5-min Rain = 0
KAM3 110621Z 00008KT M09/M13 A3006 RMK A01 T10881133  RH  070%=      5-min Rain = 0
KAM3 110622Z 01008KT M09/M13 A3006 RMK A01 T10881133  RH  070%=      5-min Rain = 0
KAM3 110623Z 00008KT M09/M13 A3006 RMK A01 T10881133  RH  070%=      5-min Rain = 0
KAM3 110624Z 00007KT M09/M13 A3006 RMK A01 T10881133  RH  070%=      5-min Rain = 0
KAM3 110625Z 00010KT M09/M13 A3007 RMK A01 T10881133  RH  070%=      5-min Rain = 0
KAM3 110626Z 36008KT M09/M13 A3007 RMK A01 T10891133  RH  070%=      5-min Rain = 0
KAM3 110627Z 00008KT M09/M13 A3006 RMK A01 T10891133  RH  070%=      5-min Rain = 0
KAM3 110628Z 00009KT M09/M13 A3007 RMK A01 T10881133  RH  070%=      5-min Rain = 0
KAM3 110629Z 36008KT M09/M13 A3007 RMK A01 T10891133  RH  070%=      5-min Rain = 0
KAM3 110630Z 00009KT M09/M13 A3007 RMK A01 T10891133  RH  070%=      5-min Rain = 0
KAM3 110631Z 01011KT M09/M13 A3007 RMK A01 T10881132  RH  070%=      5-min Rain = 0
KAM3 110632Z 00009KT M09/M13 A3007 RMK A01 T10891133  RH  070%=      5-min Rain = 0
KAM3 110633Z 35009KT M09/M13 A3007 RMK A01 T10891133  RH  070%=      5-min Rain = 0
KAM3 110634Z 36009KT M09/M13 A3007 RMK A01 T10881132  RH  070%=      5-min Rain = 0
KAM3 110635Z 00008KT M09/M13 A3007 RMK A01 T10891133  RH  070%=      5-min Rain = 0
KAM3 110636Z 00008KT M09/M13 A3007 RMK A01 T10891133  RH  070%=      5-min Rain = 0
KAM3 110637Z 01008KT M09/M13 A3007 RMK A01 T10881132  RH  071%=      5-min Rain = 0
KAM3 110638Z 00010KT M09/M13 A3007 RMK A01 T10891133  RH  071%=      5-min Rain = 0
KAM3 110639Z 36012KT M09/M13 A3007 RMK A01 T10891133  RH  071%=      5-min Rain = 0
KAM3 110640Z 00010KT M09/M13 A3007 RMK A01 T10891132  RH  071%=      5-min Rain = 0
KAM3 110641Z 35011KT M09/M13 A3006 RMK A01 T10891133  RH  071%=      5-min Rain = 0
KAM3 110642Z 36012KT M09/M13 A3006 RMK A01 T10891133  RH  071%=      5-min Rain = 0
KAM3 110643Z 35011KT M09/M13 A3006 RMK A01 T10891132  RH  071%=      5-min Rain = 0
KAM3 110644Z 36009KT M09/M13 A3006 RMK A01 T10891132  RH  071%=      5-min Rain = 0
KAM3 110645Z 36010KT M09/M13 A3006 RMK A01 T10891132  RH  071%=      5-min Rain = 0
KAM3 110646Z 35009KT M09/M13 A3006 RMK A01 T10891133  RH  071%=      5-min Rain = 0
KAM3 110647Z 36009KT M09/M13 A3007 RMK A01 T10901133  RH  071%=      5-min Rain = 0
KAM3 110648Z 35008KT M09/M13 A3007 RMK A01 T10901133  RH  071%=      5-min Rain = 0
KAM3 110649Z 35008KT M09/M13 A3007 RMK A01 T10901133  RH  071%=      5-min Rain = 0
KAM3 110650Z 35009KT M09/M13 A3007 RMK A01 T10911133  RH  071%=      5-min Rain = 0
KAM3 110651Z 35010KT M09/M13 A3007 RMK A01 T10911134  RH  071%=      5-min Rain = 0
KAM3 110652Z 35010KT M09/M13 A3007 RMK A01 T10911133  RH  072%=      5-min Rain = 0
KAM3 110653Z 35011KT M09/M13 A3006 RMK A01 T10921133  RH  072%=      5-min Rain = 0
KAM3 110654Z 35010KT M09/M13 A3006 RMK A01 T10911133  RH  072%=      5-min Rain = 0
KAM3 110655Z 35009KT M09/M13 A3006 RMK A01 T10911132  RH  072%=      5-min Rain = 0
KAM3 110656Z 35010KT M09/M13 A3007 RMK A01 T10911132  RH  072%=      5-min Rain = 0
KAM3 110657Z 36010KT M09/M13 A3007 RMK A01 T10911132  RH  072%=      5-min Rain = 0
KAM3 110658Z 36010KT M09/M13 A3007 RMK A01 T10911132  RH  072%=      5-min Rain = 0
KAM3 110659Z 34009KT M09/M13 A3007 RMK A01 T10911132  RH  072%=      5-min Rain = 0
KAM3 110700Z 35011KT M09/M13 A3007 RMK A01 T10911132  RH  072%=      5-min Rain = 0
KAM3 110701Z 35011KT M09/M13 A3007 RMK A01 T10911132  RH  073%=      5-min Rain = 0
KAM3 110702Z 35009KT M09/M13 A3007 RMK A01 T10911132  RH  073%=      5-min Rain = 0
KAM3 110703Z 35008KT M09/M13 A3007 RMK A01 T10911132  RH  073%=      5-min Rain = 0
KAM3 110704Z 35009KT M09/M13 A3007 RMK A01 T10911131  RH  073%=      5-min Rain = 0
KAM3 110705Z 35010KT M09/M13 A3007 RMK A01 T10911131  RH  073%=      5-min Rain = 0
KAM3 110706Z 35009KT M09/M13 A3007 RMK A01 T10911131  RH  073%=      5-min Rain = 0
KAM3 110707Z 35010KT M09/M13 A3007 RMK A01 T10911131  RH  073%=      5-min Rain = 0
KAM3 110708Z 35009KT M09/M13 A3007 RMK A01 T10911131  RH  073%=      5-min Rain = 0
KAM3 110709Z 35008KT M09/M13 A3007 RMK A01 T10911131  RH  073%=      5-min Rain = 0
KAM3 110710Z 35008KT M09/M13 A3007 RMK A01 T10911131  RH  073%=      5-min Rain = 0
KAM3 110711Z 35008KT M09/M13 A3007 RMK A01 T10911132  RH  072%=      5-min Rain = 0
KAM3 110712Z 35009KT M09/M13 A3007 RMK A01 T10911131  RH  073%=      5-min Rain = 0
KAM3 110713Z 34010KT M09/M13 A3007 RMK A01 T10911131  RH  073%=      5-min Rain = 0
KAM3 110714Z 35011KT M09/M13 A3007 RMK A01 T10911131  RH  073%=      5-min Rain = 0
KAM3 110715Z 34012KT M09/M13 A3006 RMK A01 T10901131  RH  072%=      5-min Rain = 0
KAM3 110716Z 35013KT M09/M13 A3006 RMK A01 T10901131  RH  072%=      5-min Rain = 0
KAM3 110717Z 34012KT M09/M13 A3006 RMK A01 T10911132  RH  072%=      5-min Rain = 0
KAM3 110718Z 35010KT M09/M13 A3007 RMK A01 T10911132  RH  072%=      5-min Rain = 0
KAM3 110719Z 35012KT M09/M13 A3007 RMK A01 T10901132  RH  072%=      5-min Rain = 0
KAM3 110720Z 35011KT M09/M13 A3007 RMK A01 T10911132  RH  072%=      5-min Rain = 0
KAM3 110721Z 35010KT M09/M13 A3007 RMK A01 T10901132  RH  072%=      5-min Rain = 0
KAM3 110722Z 35012KT M09/M13 A3007 RMK A01 T10901132  RH  072%=      5-min Rain = 0
KAM3 110723Z 35011KT M09/M13 A3007 RMK A01 T10911132  RH  072%=      5-min Rain = 0
KAM3 110724Z 35011KT M09/M13 A3007 RMK A01 T10911133  RH  072%=      5-min Rain = 0
KAM3 110725Z 35010KT M09/M13 A3007 RMK A01 T10911133  RH  072%=      5-min Rain = 0
KAM3 110726Z 35010KT M09/M13 A3007 RMK A01 T10921133  RH  072%=      5-min Rain = 0
KAM3 110727Z 35010KT M09/M13 A3007 RMK A01 T10921133  RH  072%=      5-min Rain = 0
KAM3 110728Z 35011KT M09/M13 A3007 RMK A01 T10921133  RH  072%=      5-min Rain = 0
KAM3 110729Z 34010KT M09/M13 A3007 RMK A01 T10931134  RH  072%=      5-min Rain = 0
KAM3 110730Z 34010KT M09/M13 A3007 RMK A01 T10931134  RH  072%=      5-min Rain = 0
KAM3 110731Z 35011KT M09/M13 A3007 RMK A01 T10931134  RH  072%=      5-min Rain = 0
KAM3 110732Z 34010KT M09/M13 A3007 RMK A01 T10931134  RH  072%=      5-min Rain = 0
KAM3 110733Z 34009KT M09/M13 A3007 RMK A01 T10931134  RH  072%=      5-min Rain = 0
KAM3 110734Z 34009KT M09/M13 A3007 RMK A01 T10931134  RH  072%=      5-min Rain = 0
KAM3 110735Z 34009KT M09/M13 A3007 RMK A01 T10941134  RH  073%=      5-min Rain = 0
KAM3 110736Z 34009KT M09/M13 A3007 RMK A01 T10941134  RH  073%=      5-min Rain = 0
KAM3 110737Z 34010KT M09/M13 A3007 RMK A01 T10941134  RH  073%=      5-min Rain = 0
KAM3 110738Z 34010KT M10/M13 A3007 RMK A01 T10951134  RH  073%=      5-min Rain = 0
KAM3 110739Z 34007KT M10/M13 A3007 RMK A01 T10951134  RH  073%=      5-min Rain = 0
KAM3 110740Z 34007KT M10/M14 A3007 RMK A01 T10951135  RH  073%=      5-min Rain = 0
KAM3 110741Z 34009KT M10/M14 A3007 RMK A01 T10961135  RH  073%=      5-min Rain = 0
KAM3 110742Z 34009KT M10/M14 A3007 RMK A01 T10961135  RH  073%=      5-min Rain = 0
KAM3 110743Z 34009KT M10/M14 A3007 RMK A01 T10961135  RH  073%=      5-min Rain = 0
KAM3 110744Z 34008KT M10/M14 A3007 RMK A01 T10971135  RH  074%=      5-min Rain = 0
KAM3 110745Z 34009KT M10/M14 A3007 RMK A01 T10971135  RH  074%=      5-min Rain = 0
KAM3 110746Z 34010KT M10/M14 A3007 RMK A01 T10971135  RH  074%=      5-min Rain = 0
KAM3 110747Z 34009KT M10/M14 A3007 RMK A01 T10981135  RH  074%=      5-min Rain = 0
KAM3 110748Z 35010KT M10/M14 A3007 RMK A01 T10981135  RH  074%=      5-min Rain = 0
KAM3 110749Z 35010KT M10/M14 A3007 RMK A01 T10981135  RH  074%=      5-min Rain = 0
KAM3 110750Z 34009KT M10/M14 A3008 RMK A01 T10981135  RH  074%=      5-min Rain = 0
KAM3 110751Z 34008KT M10/M14 A3008 RMK A01 T10981136  RH  074%=      5-min Rain = 0
KAM3 110752Z 34008KT M10/M14 A3008 RMK A01 T10981136  RH  074%=      5-min Rain = 0
KAM3 110753Z 34008KT M10/M14 A3008 RMK A01 T10991137  RH  074%=      5-min Rain = 0
KAM3 110754Z 34008KT M10/M14 A3008 RMK A01 T11001137  RH  074%=      5-min Rain = 0
KAM3 110755Z 34009KT M10/M14 A3008 RMK A01 T11001137  RH  074%=      5-min Rain = 0
KAM3 110756Z 33009KT M10/M14 A3008 RMK A01 T11011137  RH  075%=      5-min Rain = 0
KAM3 110757Z 34009KT M10/M14 A3008 RMK A01 T11011136  RH  075%=      5-min Rain = 0
KAM3 110758Z 34008KT M10/M14 A3008 RMK A01 T11001135  RH  075%=      5-min Rain = 0
KAM3 110759Z 35007KT M10/M14 A3008 RMK A01 T11001135  RH  076%=      5-min Rain = 0
KAM3 110800Z 35007KT M10/M14 A3008 RMK A01 T11011136  RH  076%=      5-min Rain = 0
KAM3 110801Z 35006KT M10/M14 A3008 RMK A01 T11021136  RH  076%=      5-min Rain = 0
KAM3 110802Z 35006KT M10/M14 A3008 RMK A01 T11021136  RH  076%=      5-min Rain = 0
KAM3 110803Z 34006KT M10/M14 A3008 RMK A01 T11021136  RH  076%=      5-min Rain = 0
KAM3 110804Z 34007KT M10/M14 A3008 RMK A01 T11021136  RH  076%=      5-min Rain = 0
KAM3 110805Z 34007KT M10/M14 A3008 RMK A01 T11021135  RH  077%=      5-min Rain = 0
KAM3 110806Z 35006KT M10/M13 A3008 RMK A01 T11011134  RH  077%=      5-min Rain = 0
KAM3 110807Z 34006KT M10/M13 A3008 RMK A01 T11001134  RH  076%=      5-min Rain = 0
KAM3 110808Z 34006KT M10/M14 A3008 RMK A01 T11011135  RH  076%=      5-min Rain = 0
KAM3 110809Z 35007KT M10/M14 A3008 RMK A01 T11011135  RH  076%=      5-min Rain = 0
KAM3 110810Z 35006KT M10/M14 A3008 RMK A01 T11011135  RH  076%=      5-min Rain = 0
KAM3 110811Z 35006KT M10/M14 A3008 RMK A01 T11011135  RH  076%=      5-min Rain = 0
KAM3 110812Z 35006KT M10/M14 A3008 RMK A01 T11021136  RH  076%=      5-min Rain = 0
KAM3 110813Z 35006KT M10/M14 A3008 RMK A01 T11021136  RH  076%=      5-min Rain = 0
KAM3 110814Z 35006KT M10/M14 A3008 RMK A01 T11021136  RH  076%=      5-min Rain = 0
KAM3 110815Z 34006KT M10/M14 A3008 RMK A01 T11031137  RH  076%=      5-min Rain = 0
KAM3 110816Z 35006KT M10/M14 A3008 RMK A01 T11031137  RH  076%=      5-min Rain = 0
KAM3 110817Z 35006KT M10/M14 A3008 RMK A01 T11041137  RH  077%=      5-min Rain = 0
KAM3 110818Z 35006KT M10/M14 A3008 RMK A01 T11041137  RH  077%=      5-min Rain = 0
KAM3 110819Z 35006KT M10/M14 A3008 RMK A01 T11041137  RH  077%=      5-min Rain = 0
KAM3 110820Z 35006KT M11/M14 A3008 RMK A01 T11051138  RH  077%=      5-min Rain = 0
KAM3 110821Z 35006KT M11/M14 A3008 RMK A01 T11051138  RH  077%=      5-min Rain = 0
KAM3 110822Z 35006KT M11/M14 A3008 RMK A01 T11061138  RH  077%=      5-min Rain = 0
KAM3 110823Z 35006KT M11/M14 A3008 RMK A01 T11061138  RH  077%=      5-min Rain = 0
KAM3 110824Z 35006KT M11/M14 A3008 RMK A01 T11071139  RH  078%=      5-min Rain = 0
KAM3 110825Z 34005KT M11/M14 A3008 RMK A01 T11071139  RH  078%=      5-min Rain = 0
KAM3 110826Z 34005KT M11/M14 A3008 RMK A01 T11081139  RH  078%=      5-min Rain = 0
KAM3 110827Z 34005KT M11/M14 A3008 RMK A01 T11081139  RH  078%=      5-min Rain = 0
KAM3 110828Z 34005KT M11/M14 A3008 RMK A01 T11091140  RH  078%=      5-min Rain = 0
KAM3 110829Z 34005KT M11/M14 A3008 RMK A01 T11091140  RH  078%=      5-min Rain = 0
KAM3 110830Z 34005KT M11/M14 A3008 RMK A01 T11101141  RH  078%=      5-min Rain = 0
KAM3 110831Z 34005KT M11/M14 A3008 RMK A01 T11111141  RH  078%=      5-min Rain = 0
KAM3 110832Z 34005KT M11/M14 A3008 RMK A01 T11111140  RH  079%=      5-min Rain = 0
KAM3 110833Z 34005KT M11/M14 A3008 RMK A01 T11111140  RH  079%=      5-min Rain = 0
KAM3 110834Z 34005KT M11/M14 A3008 RMK A01 T11111140  RH  079%=      5-min Rain = 0
KAM3 110835Z 33005KT M11/M14 A3008 RMK A01 T11111140  RH  079%=      5-min Rain = 0
KAM3 110836Z 33006KT M11/M14 A3007 RMK A01 T11121140  RH  080%=      5-min Rain = 0
KAM3 110837Z 33006KT M11/M14 A3007 RMK A01 T11111140  RH  080%=      5-min Rain = 0
KAM3 110838Z 33006KT M11/M14 A3007 RMK A01 T11121140  RH  079%=      5-min Rain = 0
KAM3 110839Z 33006KT M11/M14 A3008 RMK A01 T11121140  RH  079%=      5-min Rain = 0
KAM3 110840Z 33006KT M11/M14 A3007 RMK A01 T11111140  RH  080%=      5-min Rain = 0
KAM3 110841Z 33006KT M11/M14 A3008 RMK A01 T11121140  RH  080%=      5-min Rain = 0
KAM3 110842Z 33006KT M11/M14 A3008 RMK A01 T11121140  RH  080%=      5-min Rain = 0
KAM3 110843Z 33006KT M11/M14 A3008 RMK A01 T11111139  RH  080%=      5-min Rain = 0
KAM3 110844Z 33006KT M11/M14 A3007 RMK A01 T11111139  RH  080%=      5-min Rain = 0
KAM3 110845Z 33006KT M11/M14 A3007 RMK A01 T11111139  RH  080%=      5-min Rain = 0
KAM3 110846Z 33006KT M11/M14 A3007 RMK A01 T11101139  RH  080%=      5-min Rain = 0
KAM3 110847Z 33006KT M11/M14 A3007 RMK A01 T11101139  RH  080%=      5-min Rain = 0
KAM3 110848Z 33006KT M11/M14 A3007 RMK A01 T11101139  RH  079%=      5-min Rain = 0
KAM3 110849Z 33006KT M11/M14 A3007 RMK A01 T11101138  RH  079%=      5-min Rain = 0
KAM3 110850Z 33006KT M11/M14 A3007 RMK A01 T11091138  RH  079%=      5-min Rain = 0
KAM3 110851Z 33005KT M11/M14 A3007 RMK A01 T11091138  RH  079%=      5-min Rain = 0
KAM3 110852Z 33005KT M11/M14 A3007 RMK A01 T11091137  RH  079%=      5-min Rain = 0
KAM3 110853Z 33005KT M11/M14 A3007 RMK A01 T11081137  RH  079%=      5-min Rain = 0
KAM3 110854Z 33005KT M11/M14 A3007 RMK A01 T11081137  RH  079%=      5-min Rain = 0
KAM3 110855Z 33006KT M11/M14 A3007 RMK A01 T11081137  RH  079%=      5-min Rain = 0
KAM3 110856Z 33005KT M11/M14 A3007 RMK A01 T11071137  RH  079%=      5-min Rain = 0
KAM3 110857Z 33005KT M11/M14 A3007 RMK A01 T11071137  RH  079%=      5-min Rain = 0
KAM3 110858Z 34005KT M11/M14 A3007 RMK A01 T11071136  RH  079%=      5-min Rain = 0
KAM3 110859Z 33004KT M11/M14 A3007 RMK A01 T11071136  RH  079%=      5-min Rain = 0
KAM3 110900Z 33004KT M11/M14 A3007 RMK A01 T11071136  RH  079%=      5-min Rain = 0
KAM3 110901Z 34004KT M11/M14 A3007 RMK A01 T11061136  RH  079%=      5-min Rain = 0
KAM3 110902Z 33004KT M11/M14 A3007 RMK A01 T11061136  RH  079%=      5-min Rain = 0
KAM3 110903Z 33004KT M11/M14 A3007 RMK A01 T11061136  RH  079%=      5-min Rain = 0
KAM3 110904Z 33004KT M11/M14 A3007 RMK A01 T11061136  RH  078%=      5-min Rain = 0
KAM3 110905Z 34004KT M11/M14 A3007 RMK A01 T11051135  RH  078%=      5-min Rain = 0
KAM3 110906Z 34005KT M11/M14 A3007 RMK A01 T11051136  RH  078%=      5-min Rain = 0
KAM3 110907Z 34005KT M11/M14 A3007 RMK A01 T11051136  RH  078%=      5-min Rain = 0
KAM3 110908Z 34005KT M11/M14 A3006 RMK A01 T11051135  RH  078%=      5-min Rain = 0
KAM3 110909Z 33005KT M11/M14 A3006 RMK A01 T11051135  RH  078%=      5-min Rain = 0
KAM3 110910Z 33005KT M11/M14 A3007 RMK A01 T11051136  RH  078%=      5-min Rain = 0
KAM3 110911Z 33005KT M11/M14 A3007 RMK A01 T11051135  RH  078%=      5-min Rain = 0
KAM3 110912Z 33005KT M11/M14 A3006 RMK A01 T11051136  RH  078%=      5-min Rain = 0
KAM3 110913Z 33005KT M11/M14 A3006 RMK A01 T11051136  RH  078%=      5-min Rain = 0
KAM3 110914Z 33005KT M10/M14 A3006 RMK A01 T11041135  RH  078%=      5-min Rain = 0
KAM3 110915Z 33005KT M10/M14 A3006 RMK A01 T11041136  RH  078%=      5-min Rain = 0
KAM3 110916Z 33005KT M10/M14 A3006 RMK A01 T11041135  RH  078%=      5-min Rain = 0
KAM3 110917Z 33005KT M10/M14 A3006 RMK A01 T11041135  RH  078%=      5-min Rain = 0
KAM3 110918Z 33005KT M10/M14 A3006 RMK A01 T11041135  RH  078%=      5-min Rain = 0
KAM3 110919Z 33005KT M10/M14 A3007 RMK A01 T11041135  RH  078%=      5-min Rain = 0
KAM3 110920Z 33005KT M10/M14 A3007 RMK A01 T11031135  RH  078%=      5-min Rain = 0
KAM3 110921Z 33005KT M10/M14 A3007 RMK A01 T11041135  RH  078%=      5-min Rain = 0
KAM3 110922Z 33004KT M10/M14 A3007 RMK A01 T11041135  RH  078%=      5-min Rain = 0
KAM3 110923Z 33004KT M10/M14 A3007 RMK A01 T11041135  RH  078%=      5-min Rain = 0
KAM3 110924Z 33004KT M10/M14 A3007 RMK A01 T11041135  RH  078%=      5-min Rain = 0
KAM3 110925Z 33004KT M10/M14 A3007 RMK A01 T11041135  RH  078%=      5-min Rain = 0
KAM3 110926Z 33004KT M10/M14 A3007 RMK A01 T11041135  RH  078%=      5-min Rain = 0
KAM3 110927Z 32004KT M10/M14 A3007 RMK A01 T11041135  RH  078%=      5-min Rain = 0
KAM3 110928Z 32005KT M10/M14 A3007 RMK A01 T11031135  RH  078%=      5-min Rain = 0
KAM3 110929Z 31005KT M10/M13 A3007 RMK A01 T11031134  RH  078%=      5-min Rain = 0
KAM3 110930Z 31005KT M10/M13 A3008 RMK A01 T11021134  RH  078%=      5-min Rain = 0
KAM3 110931Z 31005KT M10/M13 A3008 RMK A01 T11021134  RH  077%=      5-min Rain = 0
KAM3 110932Z 31005KT M10/M13 A3008 RMK A01 T11021134  RH  077%=      5-min Rain = 0
KAM3 110933Z 31005KT M10/M13 A3008 RMK A01 T11011134  RH  077%=      5-min Rain = 0
KAM3 110934Z 31005KT M10/M13 A3008 RMK A01 T11011133  RH  077%=      5-min Rain = 0
KAM3 110935Z 31005KT M10/M13 A3008 RMK A01 T11011133  RH  077%=      5-min Rain = 0
KAM3 110936Z 31006KT M10/M13 A3008 RMK A01 T11001133  RH  077%=      5-min Rain = 0
KAM3 110937Z 31006KT M10/M13 A3008 RMK A01 T11001134  RH  076%=      5-min Rain = 0
KAM3 110938Z 31006KT M10/M13 A3008 RMK A01 T11001134  RH  076%=      5-min Rain = 0
KAM3 110939Z 32005KT M10/M13 A3008 RMK A01 T10991134  RH  076%=      5-min Rain = 0
KAM3 110940Z 32005KT M10/M13 A3008 RMK A01 T10991134  RH  076%=      5-min Rain = 0
KAM3 110941Z 32005KT M10/M13 A3008 RMK A01 T10991134  RH  076%=      5-min Rain = 0
KAM3 110942Z 32005KT M10/M13 A3008 RMK A01 T10991134  RH  076%=      5-min Rain = 0
KAM3 110943Z 32005KT M10/M13 A3008 RMK A01 T10991134  RH  076%=      5-min Rain = 0
KAM3 110944Z 31006KT M10/M13 A3008 RMK A01 T10991134  RH  076%=      5-min Rain = 0
KAM3 110945Z 31005KT M10/M13 A3008 RMK A01 T10991134  RH  076%=      5-min Rain = 0
KAM3 110946Z 31005KT M10/M13 A3008 RMK A01 T10991134  RH  076%=      5-min Rain = 0
KAM3 110947Z 31005KT M10/M13 A3008 RMK A01 T10991134  RH  076%=      5-min Rain = 0
KAM3 110948Z 31006KT M10/M13 A3008 RMK A01 T10991134  RH  076%=      5-min Rain = 0
KAM3 110949Z 30006KT M10/M13 A3008 RMK A01 T10981134  RH  075%=      5-min Rain = 0
KAM3 110950Z 31006KT M10/M13 A3008 RMK A01 T10981133  RH  075%=      5-min Rain = 0
KAM3 110951Z 31006KT M10/M13 A3008 RMK A01 T10981133  RH  075%=      5-min Rain = 0
KAM3 110952Z 31006KT M10/M13 A3008 RMK A01 T10981134  RH  075%=      5-min Rain = 0
KAM3 110953Z 31006KT M10/M13 A3009 RMK A01 T10971133  RH  075%=      5-min Rain = 0
KAM3 110954Z 31007KT M10/M13 A3009 RMK A01 T10971134  RH  075%=      5-min Rain = 0
KAM3 110955Z 31007KT M10/M13 A3008 RMK A01 T10971134  RH  074%=      5-min Rain = 0
KAM3 110956Z 31005KT M10/M13 A3008 RMK A01 T10971134  RH  074%=      5-min Rain = 0
KAM3 110957Z 31006KT M10/M13 A3008 RMK A01 T10971134  RH  074%=      5-min Rain = 0
KAM3 110958Z 31006KT M10/M13 A3008 RMK A01 T10971134  RH  074%=      5-min Rain = 0
KAM3 110959Z 31006KT M10/M13 A3008 RMK A01 T10971134  RH  074%=      5-min Rain = 0
KAM3 111000Z 31006KT M10/M13 A3008 RMK A01 T10971134  RH  074%=      5-min Rain = 0
KAM3 111001Z 32004KT M10/M14 A3008 RMK A01 T10971135  RH  074%=      5-min Rain = 0
KAM3 111002Z 31006KT M10/M13 A3008 RMK A01 T10971134  RH  074%=      5-min Rain = 0
KAM3 111003Z 31005KT M10/M14 A3008 RMK A01 T10971135  RH  074%=      5-min Rain = 0
KAM3 111004Z 32004KT M10/M14 A3008 RMK A01 T10971135  RH  074%=      5-min Rain = 0
KAM3 111005Z 32005KT M10/M13 A3008 RMK A01 T10971134  RH  074%=      5-min Rain = 0
KAM3 111006Z 31006KT M10/M14 A3008 RMK A01 T10971135  RH  074%=      5-min Rain = 0
KAM3 111007Z 31006KT M10/M13 A3008 RMK A01 T10971134  RH  074%=      5-min Rain = 0
KAM3 111008Z 31005KT M10/M13 A3008 RMK A01 T10971134  RH  074%=      5-min Rain = 0
KAM3 111009Z 31004KT M10/M14 A3008 RMK A01 T10971135  RH  074%=      5-min Rain = 0
KAM3 111010Z 31006KT M10/M13 A3008 RMK A01 T10971134  RH  074%=      5-min Rain = 0
KAM3 111011Z 31005KT M10/M13 A3008 RMK A01 T10971134  RH  074%=      5-min Rain = 0
KAM3 111012Z 31005KT M10/M14 A3008 RMK A01 T10971135  RH  074%=      5-min Rain = 0
KAM3 111013Z 31004KT M10/M14 A3008 RMK A01 T10971135  RH  074%=      5-min Rain = 0
KAM3 111014Z 31004KT M10/M14 A3009 RMK A01 T10971135  RH  074%=      5-min Rain = 0
KAM3 111015Z 31005KT M10/M14 A3009 RMK A01 T10971135  RH  074%=      5-min Rain = 0
KAM3 111016Z 31004KT M10/M14 A3009 RMK A01 T10971135  RH  074%=      5-min Rain = 0
KAM3 111017Z 30005KT M10/M13 A3009 RMK A01 T10971134  RH  074%=      5-min Rain = 0
KAM3 111018Z 31005KT M10/M14 A3009 RMK A01 T10971135  RH  074%=      5-min Rain = 0
KAM3 111019Z 31005KT M10/M14 A3009 RMK A01 T10971135  RH  074%=      5-min Rain = 0
KAM3 111020Z 30005KT M10/M13 A3009 RMK A01 T10971134  RH  074%=      5-min Rain = 0
KAM3 111021Z 31005KT M10/M14 A3009 RMK A01 T10971135  RH  074%=      5-min Rain = 0
KAM3 111022Z 31005KT M10/M14 A301 RMK A01 T10971135  RH  074%=      5-min Rain = 0
KAM3 111023Z 30006KT M10/M14 A301 RMK A01 T10971135  RH  074%=      5-min Rain = 0
KAM3 111024Z 31004KT M10/M14 A3009 RMK A01 T10971135  RH  074%=      5-min Rain = 0
KAM3 111025Z 31004KT M10/M14 A3009 RMK A01 T10971135  RH  074%=      5-min Rain = 0
KAM3 111026Z 30004KT M10/M14 A3009 RMK A01 T10971135  RH  074%=      5-min Rain = 0
KAM3 111027Z 30005KT M10/M14 A301 RMK A01 T10971135  RH  074%=      5-min Rain = 0
KAM3 111028Z 30005KT M10/M14 A301 RMK A01 T10971135  RH  074%=      5-min Rain = 0
KAM3 111029Z 30005KT M10/M14 A301 RMK A01 T10971135  RH  074%=      5-min Rain = 0
KAM3 111030Z 30004KT M10/M14 A301 RMK A01 T10971135  RH  074%=      5-min Rain = 0
KAM3 111031Z 30005KT M10/M14 A3009 RMK A01 T10971135  RH  074%=      5-min Rain = 0
KAM3 111032Z 30006KT M10/M14 A301 RMK A01 T10971135  RH  074%=      5-min Rain = 0
KAM3 111033Z 30005KT M10/M14 A301 RMK A01 T10971135  RH  074%=      5-min Rain = 0
KAM3 111034Z 29005KT M10/M14 A301 RMK A01 T10971135  RH  074%=      5-min Rain = 0
KAM3 111035Z 29004KT M10/M14 A301 RMK A01 T10971135  RH  074%=      5-min Rain = 0
KAM3 111036Z 30004KT M10/M14 A3009 RMK A01 T10971135  RH  074%=      5-min Rain = 0
KAM3 111037Z 30004KT M10/M14 A3009 RMK A01 T10971135  RH  074%=      5-min Rain = 0
KAM3 111038Z 30005KT M10/M14 A3009 RMK A01 T10971135  RH  074%=      5-min Rain = 0
KAM3 111039Z 29005KT M10/M14 A3009 RMK A01 T10971135  RH  074%=      5-min Rain = 0
KAM3 111040Z 29005KT M10/M14 A3009 RMK A01 T10981136  RH  074%=      5-min Rain = 0
KAM3 111041Z 30005KT M10/M14 A3009 RMK A01 T10981136  RH  074%=      5-min Rain = 0
KAM3 111042Z 31004KT M10/M14 A3009 RMK A01 T10981136  RH  074%=      5-min Rain = 0
KAM3 111043Z 31004KT M10/M14 A3009 RMK A01 T10981136  RH  074%=      5-min Rain = 0
KAM3 111044Z 30003KT M10/M14 A3009 RMK A01 T10981135  RH  074%=      5-min Rain = 0
KAM3 111045Z 30004KT M10/M14 A3009 RMK A01 T10981136  RH  074%=      5-min Rain = 0
KAM3 111046Z 30004KT M10/M14 A3009 RMK A01 T10981136  RH  074%=      5-min Rain = 0
KAM3 111047Z 30004KT M10/M14 A3009 RMK A01 T10981135  RH  074%=      5-min Rain = 0
KAM3 111048Z 30004KT M10/M14 A3009 RMK A01 T10981135  RH  074%=      5-min Rain = 0
KAM3 111049Z 31003KT M10/M14 A3009 RMK A01 T10981135  RH  074%=      5-min Rain = 0
KAM3 111050Z 31003KT M10/M14 A3009 RMK A01 T10981135  RH  074%=      5-min Rain = 0
KAM3 111051Z 30003KT M10/M14 A3009 RMK A01 T10981135  RH  074%=      5-min Rain = 0
KAM3 111052Z 29004KT M10/M14 A3009 RMK A01 T10981135  RH  074%=      5-min Rain = 0
KAM3 111053Z 29005KT M10/M14 A301 RMK A01 T10981135  RH  074%=      5-min Rain = 0
KAM3 111054Z 29005KT M10/M13 A301 RMK A01 T10971134  RH  074%=      5-min Rain = 0
KAM3 111055Z 29004KT M10/M13 A301 RMK A01 T10971134  RH  074%=      5-min Rain = 0
KAM3 111056Z 30005KT M10/M13 A301 RMK A01 T10961134  RH  074%=      5-min Rain = 0
KAM3 111057Z 29005KT M10/M13 A301 RMK A01 T10961134  RH  074%=      5-min Rain = 0
KAM3 111058Z 29005KT M10/M13 A301 RMK A01 T10961134  RH  074%=      5-min Rain = 0
KAM3 111059Z 28005KT M10/M13 A301 RMK A01 T10961134  RH  074%=      5-min Rain = 0
KAM3 111100Z 28004KT M10/M13 A301 RMK A01 T10961134  RH  074%=      5-min Rain = 0
KAM3 111101Z 28004KT M10/M13 A301 RMK A01 T10961134  RH  074%=      5-min Rain = 0
KAM3 111102Z 29004KT M10/M13 A301 RMK A01 T10951134  RH  074%=      5-min Rain = 0
KAM3 111103Z 29004KT M10/M13 A301 RMK A01 T10961134  RH  074%=      5-min Rain = 0
KAM3 111104Z 28004KT M10/M13 A301 RMK A01 T10961134  RH  074%=      5-min Rain = 0
KAM3 111105Z 28003KT M10/M13 A301 RMK A01 T10951134  RH  074%=      5-min Rain = 0
KAM3 111106Z 28004KT M10/M13 A301 RMK A01 T10951133  RH  074%=      5-min Rain = 0
KAM3 111107Z 29004KT M10/M13 A301 RMK A01 T10951133  RH  074%=      5-min Rain = 0
KAM3 111108Z 28004KT M10/M13 A301 RMK A01 T10951133  RH  074%=      5-min Rain = 0
KAM3 111109Z 30003KT M09/M13 A3009 RMK A01 T10941132  RH  074%=      5-min Rain = 0
KAM3 111110Z 29004KT M10/M13 A301 RMK A01 T10951132  RH  074%=      5-min Rain = 0
KAM3 111111Z 29003KT M09/M13 A301 RMK A01 T10941132  RH  074%=      5-min Rain = 0
KAM3 111112Z 29003KT M09/M13 A301 RMK A01 T10941132  RH  074%=      5-min Rain = 0
KAM3 111113Z 29003KT M09/M13 A301 RMK A01 T10941132  RH  074%=      5-min Rain = 0
KAM3 111114Z 28004KT M09/M13 A301 RMK A01 T10931131  RH  074%=      5-min Rain = 0
KAM3 111115Z 28004KT M09/M13 A301 RMK A01 T10931132  RH  074%=      5-min Rain = 0
KAM3 111116Z 28003KT M09/M13 A301 RMK A01 T10931132  RH  074%=      5-min Rain = 0
KAM3 111117Z 27004KT M09/M13 A301 RMK A01 T10931132  RH  073%=      5-min Rain = 0
KAM3 111118Z 28005KT M09/M13 A301 RMK A01 T10931132  RH  073%=      5-min Rain = 0
KAM3 111119Z 28005KT M09/M13 A301 RMK A01 T10931132  RH  073%=      5-min Rain = 0
KAM3 111120Z 28004KT M09/M13 A301 RMK A01 T10931132  RH  073%=      5-min Rain = 0
KAM3 111121Z 28004KT M09/M13 A301 RMK A01 T10931133  RH  073%=      5-min Rain = 0
KAM3 111122Z 28002KT M09/M13 A301 RMK A01 T10931133  RH  073%=      5-min Rain = 0
KAM3 111123Z 29002KT M09/M13 A301 RMK A01 T10931133  RH  073%=      5-min Rain = 0
KAM3 111124Z 28003KT M09/M13 A301 RMK A01 T10921132  RH  073%=      5-min Rain = 0
KAM3 111125Z 28003KT M09/M13 A301 RMK A01 T10931133  RH  073%=      5-min Rain = 0
KAM3 111126Z 28003KT M09/M13 A301 RMK A01 T10921133  RH  072%=      5-min Rain = 0
KAM3 111127Z 27003KT M09/M13 A301 RMK A01 T10921133  RH  072%=      5-min Rain = 0
KAM3 111128Z 27003KT M09/M13 A301 RMK A01 T10921133  RH  072%=      5-min Rain = 0
KAM3 111129Z 27004KT M09/M13 A301 RMK A01 T10921133  RH  072%=      5-min Rain = 0
KAM3 111130Z 27004KT M09/M13 A301 RMK A01 T10921133  RH  072%=      5-min Rain = 0
KAM3 111131Z 28004KT M09/M13 A301 RMK A01 T10921134  RH  072%=      5-min Rain = 0
KAM3 111132Z 28004KT M09/M13 A301 RMK A01 T10921133  RH  072%=      5-min Rain = 0
KAM3 111133Z 28004KT M09/M13 A301 RMK A01 T10921133  RH  072%=      5-min Rain = 0
KAM3 111134Z 28004KT M09/M13 A301 RMK A01 T10921134  RH  072%=      5-min Rain = 0
KAM3 111135Z 27004KT M09/M13 A301 RMK A01 T10921133  RH  072%=      5-min Rain = 0
KAM3 111136Z 27004KT M09/M13 A301 RMK A01 T10921133  RH  072%=      5-min Rain = 0
KAM3 111137Z 27003KT M09/M13 A301 RMK A01 T10921133  RH  072%=      5-min Rain = 0
KAM3 111138Z 26004KT M09/M13 A301 RMK A01 T10921133  RH  072%=      5-min Rain = 0
KAM3 111139Z 26004KT M09/M13 A301 RMK A01 T10921133  RH  072%=      5-min Rain = 0
KAM3 111140Z 26004KT M09/M13 A301 RMK A01 T10921133  RH  072%=      5-min Rain = 0
KAM3 111141Z 25004KT M09/M13 A301 RMK A01 T10911133  RH  072%=      5-min Rain = 0
KAM3 111142Z 25004KT M09/M13 A301 RMK A01 T10911133  RH  072%=      5-min Rain = 0
KAM3 111143Z 25003KT M09/M13 A301 RMK A01 T10911133  RH  072%=      5-min Rain = 0
KAM3 111144Z 25003KT M09/M13 A301 RMK A01 T10911133  RH  072%=      5-min Rain = 0
KAM3 111145Z 27003KT M09/M13 A301 RMK A01 T10911133  RH  072%=      5-min Rain = 0
KAM3 111146Z 27003KT M09/M13 A301 RMK A01 T10911133  RH  072%=      5-min Rain = 0
KAM3 111147Z 27002KT M09/M13 A301 RMK A01 T10911133  RH  072%=      5-min Rain = 0
KAM3 111148Z 26002KT M09/M13 A301 RMK A01 T10911133  RH  071%=      5-min Rain = 0
KAM3 111149Z 26002KT M09/M13 A301 RMK A01 T10911133  RH  071%=      5-min Rain = 0
KAM3 111150Z 27003KT M09/M13 A301 RMK A01 T10901133  RH  071%=      5-min Rain = 0
KAM3 111151Z 27003KT M09/M13 A301 RMK A01 T10901133  RH  071%=      5-min Rain = 0
KAM3 111152Z 27004KT M09/M13 A301 RMK A01 T10901133  RH  071%=      5-min Rain = 0
KAM3 111153Z 28004KT M09/M13 A301 RMK A01 T10901132  RH  071%=      5-min Rain = 0
KAM3 111154Z 28003KT M09/M13 A301 RMK A01 T10901132  RH  071%=      5-min Rain = 0
KAM3 111155Z 27003KT M09/M13 A301 RMK A01 T10901132  RH  071%=      5-min Rain = 0
KAM3 111156Z 28004KT M09/M13 A301 RMK A01 T10901132  RH  072%=      5-min Rain = 0
KAM3 111157Z 28004KT M09/M13 A301 RMK A01 T10891131  RH  072%=      5-min Rain = 0
KAM3 111158Z 28004KT M09/M13 A301 RMK A01 T10901132  RH  071%=      5-min Rain = 0
KAM3 111159Z 28004KT M09/M13 A301 RMK A01 T10891132  RH  071%=      5-min Rain = 0
KAM3 111200Z 29006KT M09/M13 A301 RMK A01 T10891131  RH  071%=      5-min Rain = 0
KAM3 111201Z 29004KT M09/M13 A3011 RMK A01 T10891132  RH  071%=      5-min Rain = 0
KAM3 111202Z 29005KT M09/M13 A3011 RMK A01 T10891132  RH  071%=      5-min Rain = 0
KAM3 111203Z 29006KT M09/M13 A3011 RMK A01 T10881131  RH  071%=      5-min Rain = 0
KAM3 111204Z 29005KT M09/M13 A3011 RMK A01 T10891132  RH  071%=      5-min Rain = 0
KAM3 111205Z 28005KT M09/M13 A3011 RMK A01 T10891132  RH  071%=      5-min Rain = 0
KAM3 111206Z 28006KT M09/M13 A3012 RMK A01 T10881132  RH  071%=      5-min Rain = 0
KAM3 111207Z 28006KT M09/M13 A3012 RMK A01 T10881132  RH  071%=      5-min Rain = 0
KAM3 111208Z 28005KT M09/M13 A3012 RMK A01 T10881132  RH  071%=      5-min Rain = 0
KAM3 111209Z 28007KT M09/M13 A3012 RMK A01 T10881131  RH  071%=      5-min Rain = 0
KAM3 111210Z 28006KT M09/M13 A3012 RMK A01 T10881132  RH  070%=      5-min Rain = 0
KAM3 111211Z 28006KT M09/M13 A3012 RMK A01 T10881132  RH  070%=      5-min Rain = 0
KAM3 111212Z 27005KT M09/M13 A3012 RMK A01 T10881132  RH  070%=      5-min Rain = 0
KAM3 111213Z 27005KT M09/M13 A3012 RMK A01 T10881132  RH  070%=      5-min Rain = 0
KAM3 111214Z 28006KT M09/M13 A3012 RMK A01 T10881132  RH  070%=      5-min Rain = 0
KAM3 111215Z 28007KT M09/M13 A3012 RMK A01 T10881132  RH  070%=      5-min Rain = 0
KAM3 111216Z 28006KT M09/M13 A3012 RMK A01 T10881132  RH  070%=      5-min Rain = 0
KAM3 111217Z 28006KT M09/M13 A3012 RMK A01 T10881132  RH  070%=      5-min Rain = 0
KAM3 111218Z 28006KT M09/M13 A3012 RMK A01 T10881132  RH  070%=      5-min Rain = 0
KAM3 111219Z 28005KT M09/M13 A3012 RMK A01 T10871132  RH  070%=      5-min Rain = 0
KAM3 111220Z 29006KT M09/M13 A3012 RMK A01 T10871132  RH  070%=      5-min Rain = 0
KAM3 111221Z 28005KT M09/M13 A3012 RMK A01 T10871132  RH  070%=      5-min Rain = 0
KAM3 111222Z 29005KT M09/M13 A3012 RMK A01 T10871132  RH  070%=      5-min Rain = 0
KAM3 111223Z 28006KT M09/M13 A3012 RMK A01 T10871132  RH  070%=      5-min Rain = 0
KAM3 111224Z 28006KT M09/M13 A3012 RMK A01 T10871132  RH  070%=      5-min Rain = 0
KAM3 111225Z 28006KT M09/M13 A3012 RMK A01 T10871132  RH  070%=      5-min Rain = 0
KAM3 111226Z 27005KT M09/M13 A3012 RMK A01 T10871132  RH  070%=      5-min Rain = 0
KAM3 111227Z 28005KT M09/M13 A3012 RMK A01 T10871132  RH  070%=      5-min Rain = 0
KAM3 111228Z 28005KT M09/M13 A3013 RMK A01 T10871132  RH  070%=      5-min Rain = 0
KAM3 111229Z 28006KT M09/M13 A3013 RMK A01 T10871132  RH  070%=      5-min Rain = 0
KAM3 111230Z 27005KT M09/M13 A3013 RMK A01 T10871132  RH  070%=      5-min Rain = 0
KAM3 111231Z 28006KT M09/M13 A3013 RMK A01 T10871132  RH  070%=      5-min Rain = 0
KAM3 111232Z 28006KT M09/M13 A3013 RMK A01 T10871133  RH  069%=      5-min Rain = 0
KAM3 111233Z 28006KT M09/M13 A3013 RMK A01 T10871133  RH  069%=      5-min Rain = 0
KAM3 111234Z 28006KT M09/M13 A3013 RMK A01 T10871133  RH  069%=      5-min Rain = 0
KAM3 111235Z 27006KT M09/M13 A3013 RMK A01 T10871133  RH  069%=      5-min Rain = 0
KAM3 111236Z 27006KT M09/M13 A3013 RMK A01 T10871133  RH  069%=      5-min Rain = 0
KAM3 111237Z 27006KT M09/M13 A3013 RMK A01 T10871133  RH  069%=      5-min Rain = 0
KAM3 111238Z 27007KT M09/M13 A3013 RMK A01 T10871133  RH  069%=      5-min Rain = 0
KAM3 111239Z 28007KT M09/M13 A3013 RMK A01 T10871133  RH  069%=      5-min Rain = 0
KAM3 111240Z 28007KT M09/M13 A3013 RMK A01 T10871133  RH  069%=      5-min Rain = 0
KAM3 111241Z 27006KT M09/M13 A3013 RMK A01 T10871133  RH  069%=      5-min Rain = 0
KAM3 111242Z 27006KT M09/M13 A3013 RMK A01 T10871133  RH  069%=      5-min Rain = 0
KAM3 111243Z 27006KT M09/M13 A3014 RMK A01 T10871133  RH  069%=      5-min Rain = 0
KAM3 111244Z 27005KT M09/M13 A3014 RMK A01 T10871133  RH  069%=      5-min Rain = 0
KAM3 111245Z 27005KT M09/M13 A3014 RMK A01 T10871133  RH  069%=      5-min Rain = 0
KAM3 111246Z 27006KT M09/M13 A3014 RMK A01 T10871133  RH  069%=      5-min Rain = 0
KAM3 111247Z 27005KT M09/M13 A3014 RMK A01 T10871133  RH  069%=      5-min Rain = 0
KAM3 111248Z 27005KT M09/M13 A3014 RMK A01 T10861133  RH  069%=      5-min Rain = 0
KAM3 111249Z 27006KT M09/M13 A3014 RMK A01 T10861133  RH  069%=      5-min Rain = 0
KAM3 111250Z 27007KT M09/M13 A3014 RMK A01 T10861133  RH  069%=      5-min Rain = 0
KAM3 111251Z 27005KT M09/M13 A3014 RMK A01 T10861133  RH  069%=      5-min Rain = 0
KAM3 111252Z 27006KT M09/M13 A3014 RMK A01 T10861133  RH  069%=      5-min Rain = 0
KAM3 111253Z 26007KT M09/M13 A3014 RMK A01 T10861133  RH  069%=      5-min Rain = 0
KAM3 111254Z 26006KT M09/M13 A3014 RMK A01 T10861133  RH  069%=      5-min Rain = 0
KAM3 111255Z 26006KT M09/M13 A3014 RMK A01 T10861133  RH  069%=      5-min Rain = 0
KAM3 111256Z 27007KT M09/M13 A3014 RMK A01 T10861133  RH  069%=      5-min Rain = 0
KAM3 111257Z 27006KT M09/M13 A3014 RMK A01 T10861133  RH  069%=      5-min Rain = 0
KAM3 111258Z 27005KT M09/M13 A3014 RMK A01 T10861133  RH  069%=      5-min Rain = 0
KAM3 111259Z 27006KT M09/M13 A3014 RMK A01 T10851133  RH  069%=      5-min Rain = 0
KAM3 111300Z 27006KT M09/M13 A3015 RMK A01 T10851132  RH  069%=      5-min Rain = 0
KAM3 111301Z 27005KT M09/M13 A3015 RMK A01 T10851132  RH  069%=      5-min Rain = 0
KAM3 111302Z 26004KT M09/M13 A3015 RMK A01 T10851132  RH  069%=      5-min Rain = 0
KAM3 111303Z 26004KT M09/M13 A3015 RMK A01 T10851132  RH  069%=      5-min Rain = 0
KAM3 111304Z 25003KT M09/M13 A3015 RMK A01 T10851132  RH  069%=      5-min Rain = 0
KAM3 111305Z 26003KT M09/M13 A3015 RMK A01 T10851132  RH  068%=      5-min Rain = 0
KAM3 111306Z 26003KT M08/M13 A3015 RMK A01 T10841132  RH  068%=      5-min Rain = 0
KAM3 111307Z 26003KT M08/M13 A3015 RMK A01 T10841132  RH  068%=      5-min Rain = 0
KAM3 111308Z 24004KT M08/M13 A3015 RMK A01 T10841132  RH  068%=      5-min Rain = 0
KAM3 111309Z 25005KT M08/M13 A3015 RMK A01 T10831132  RH  068%=      5-min Rain = 0
KAM3 111310Z 26005KT M08/M13 A3015 RMK A01 T10831132  RH  068%=      5-min Rain = 0
KAM3 111311Z 25005KT M08/M13 A3015 RMK A01 T10831132  RH  068%=      5-min Rain = 0
KAM3 111312Z 25004KT M08/M13 A3015 RMK A01 T10831132  RH  068%=      5-min Rain = 0
KAM3 111313Z 25005KT M08/M13 A3015 RMK A01 T10831132  RH  067%=      5-min Rain = 0
KAM3 111314Z 25005KT M08/M13 A3015 RMK A01 T10831132  RH  067%=      5-min Rain = 0
KAM3 111315Z 25005KT M08/M13 A3015 RMK A01 T10831132  RH  067%=      5-min Rain = 0
KAM3 111316Z 25004KT M08/M13 A3015 RMK A01 T10821132  RH  067%=      5-min Rain = 0
KAM3 111317Z 25006KT M08/M13 A3015 RMK A01 T10821132  RH  067%=      5-min Rain = 0
KAM3 111318Z 25007KT M08/M13 A3015 RMK A01 T10821132  RH  067%=      5-min Rain = 0
KAM3 111319Z 25006KT M08/M13 A3015 RMK A01 T10821132  RH  067%=      5-min Rain = 0
KAM3 111320Z 24006KT M08/M13 A3015 RMK A01 T10821132  RH  067%=      5-min Rain = 0
KAM3 111321Z 24005KT M08/M13 A3015 RMK A01 T10811132  RH  067%=      5-min Rain = 0
KAM3 111322Z 25005KT M08/M13 A3015 RMK A01 T10811131  RH  067%=      5-min Rain = 0
KAM3 111323Z 26006KT M08/M13 A3015 RMK A01 T10811132  RH  067%=      5-min Rain = 0
KAM3 111324Z 25005KT M08/M13 A3016 RMK A01 T10811131  RH  067%=      5-min Rain = 0
KAM3 111325Z 25006KT M08/M13 A3016 RMK A01 T10811132  RH  067%=      5-min Rain = 0
KAM3 111326Z 24006KT M08/M13 A3016 RMK A01 T10811132  RH  067%=      5-min Rain = 0
KAM3 111327Z 25006KT M08/M13 A3016 RMK A01 T10811132  RH  067%=      5-min Rain = 0
KAM3 111328Z 26007KT M08/M13 A3016 RMK A01 T10811132  RH  067%=      5-min Rain = 0
KAM3 111329Z 27007KT M08/M13 A3016 RMK A01 T10811132  RH  067%=      5-min Rain = 0
KAM3 111330Z 26007KT M08/M13 A3016 RMK A01 T10811132  RH  067%=      5-min Rain = 0
KAM3 111331Z 25006KT M08/M13 A3016 RMK A01 T10801132  RH  066%=      5-min Rain = 0
KAM3 111332Z 25006KT M08/M13 A3016 RMK A01 T10811132  RH  066%=      5-min Rain = 0
KAM3 111333Z 25005KT M08/M13 A3016 RMK A01 T10801132  RH  066%=      5-min Rain = 0
KAM3 111334Z 26005KT M08/M13 A3016 RMK A01 T10801132  RH  066%=      5-min Rain = 0
KAM3 111335Z 26005KT M08/M13 A3016 RMK A01 T10801132  RH  066%=      5-min Rain = 0
KAM3 111336Z 26006KT M08/M13 A3017 RMK A01 T10801131  RH  066%=      5-min Rain = 0
KAM3 111337Z 26008KT M08/M13 A3016 RMK A01 T10801131  RH  067%=      5-min Rain = 0
KAM3 111338Z 26007KT M08/M13 A3016 RMK A01 T10801132  RH  066%=      5-min Rain = 0
KAM3 111339Z 26008KT M08/M13 A3017 RMK A01 T10801132  RH  066%=      5-min Rain = 0
KAM3 111340Z 26007KT M08/M13 A3017 RMK A01 T10801132  RH  066%=      5-min Rain = 0
KAM3 111341Z 26007KT M08/M13 A3017 RMK A01 T10801132  RH  066%=      5-min Rain = 0
KAM3 111342Z 27007KT M08/M13 A3017 RMK A01 T10791131  RH  066%=      5-min Rain = 0
KAM3 111343Z 27007KT M08/M13 A3017 RMK A01 T10791131  RH  066%=      5-min Rain = 0
KAM3 111344Z 27007KT M08/M13 A3017 RMK A01 T10791132  RH  066%=      5-min Rain = 0
KAM3 111345Z 26007KT M08/M13 A3017 RMK A01 T10791131  RH  066%=      5-min Rain = 0
KAM3 111346Z 26006KT M08/M13 A3017 RMK A01 T10791131  RH  066%=      5-min Rain = 0
KAM3 111347Z 26005KT M08/M13 A3017 RMK A01 T10791132  RH  066%=      5-min Rain = 0
KAM3 111348Z 27005KT M08/M13 A3017 RMK A01 T10791131  RH  066%=      5-min Rain = 0
KAM3 111349Z 26007KT M08/M13 A3017 RMK A01 T10781131  RH  066%=      5-min Rain = 0
KAM3 111350Z 26007KT M08/M13 A3017 RMK A01 T10781131  RH  066%=      5-min Rain = 0
KAM3 111351Z 26007KT M08/M13 A3017 RMK A01 T10781131  RH  066%=      5-min Rain = 0
KAM3 111352Z 26007KT M08/M13 A3017 RMK A01 T10781131  RH  066%=      5-min Rain = 0
KAM3 111353Z 27006KT M08/M13 A3017 RMK A01 T10781131  RH  066%=      5-min Rain = 0
KAM3 111354Z 27004KT M08/M13 A3017 RMK A01 T10781131  RH  066%=      5-min Rain = 0
KAM3 111355Z 27005KT M08/M13 A3017 RMK A01 T10771130  RH  066%=      5-min Rain = 0
KAM3 111356Z 26005KT M08/M13 A3017 RMK A01 T10781131  RH  066%=      5-min Rain = 0
KAM3 111357Z 27004KT M08/M13 A3017 RMK A01 T10771131  RH  066%=      5-min Rain = 0
KAM3 111358Z 27005KT M08/M13 A3017 RMK A01 T10771130  RH  066%=      5-min Rain = 0
KAM3 111359Z 26005KT M08/M13 A3017 RMK A01 T10771131  RH  066%=      5-min Rain = 0
KAM3 111400Z 26006KT M08/M13 A3017 RMK A01 T10771130  RH  066%=      5-min Rain = 0
KAM3 111401Z 27006KT M08/M13 A3017 RMK A01 T10771130  RH  066%=      5-min Rain = 0
KAM3 111402Z 27007KT M08/M13 A3017 RMK A01 T10771130  RH  065%=      5-min Rain = 0
KAM3 111403Z 27007KT M08/M13 A3017 RMK A01 T10771130  RH  065%=      5-min Rain = 0
KAM3 111404Z 27006KT M08/M13 A3017 RMK A01 T10771130  RH  065%=      5-min Rain = 0
KAM3 111405Z 26007KT M08/M13 A3017 RMK A01 T10771131  RH  065%=      5-min Rain = 0
KAM3 111406Z 27006KT M08/M13 A3017 RMK A01 T10761130  RH  065%=      5-min Rain = 0
KAM3 111407Z 26007KT M08/M13 A3017 RMK A01 T10761130  RH  065%=      5-min Rain = 0
KAM3 111408Z 26008KT M08/M13 A3017 RMK A01 T10761130  RH  065%=      5-min Rain = 0
KAM3 111409Z 26007KT M08/M13 A3017 RMK A01 T10761130  RH  065%=      5-min Rain = 0
KAM3 111410Z 27007KT M08/M13 A3017 RMK A01 T10761130  RH  065%=      5-min Rain = 0
KAM3 111411Z 27008KT M08/M13 A3017 RMK A01 T10761130  RH  065%=      5-min Rain = 0
KAM3 111412Z 27007KT M08/M13 A3017 RMK A01 T10761130  RH  065%=      5-min Rain = 0
KAM3 111413Z 27007KT M08/M13 A3017 RMK A01 T10761129  RH  065%=      5-min Rain = 0
KAM3 111414Z 27007KT M08/M13 A3017 RMK A01 T10761130  RH  065%=      5-min Rain = 0
KAM3 111415Z 27007KT M08/M13 A3017 RMK A01 T10761130  RH  065%=      5-min Rain = 0
KAM3 111416Z 26008KT M08/M13 A3017 RMK A01 T10751129  RH  065%=      5-min Rain = 0
KAM3 111417Z 26007KT M08/M13 A3018 RMK A01 T10751129  RH  065%=      5-min Rain = 0
KAM3 111418Z 27007KT M08/M13 A3018 RMK A01 T10751129  RH  065%=      5-min Rain = 0
KAM3 111419Z 26008KT M08/M13 A3018 RMK A01 T10751129  RH  065%=      5-min Rain = 0
KAM3 111420Z 27008KT M08/M13 A3018 RMK A01 T10751129  RH  065%=      5-min Rain = 0
KAM3 111421Z 27009KT M08/M13 A3017 RMK A01 T10751129  RH  065%=      5-min Rain = 0
KAM3 111422Z 27008KT M08/M13 A3017 RMK A01 T10751129  RH  065%=      5-min Rain = 0
KAM3 111423Z 27008KT M08/M13 A3017 RMK A01 T10751129  RH  065%=      5-min Rain = 0
KAM3 111424Z 27006KT M08/M13 A3017 RMK A01 T10751129  RH  065%=      5-min Rain = 0
KAM3 111425Z 28005KT M08/M13 A3017 RMK A01 T10751128  RH  065%=      5-min Rain = 0
KAM3 111426Z 27005KT M07/M13 A3017 RMK A01 T10741128  RH  065%=      5-min Rain = 0
KAM3 111427Z 28006KT M07/M13 A3017 RMK A01 T10741128  RH  065%=      5-min Rain = 0
KAM3 111428Z 27006KT M07/M13 A3017 RMK A01 T10741128  RH  065%=      5-min Rain = 0
KAM3 111429Z 27005KT M07/M13 A3018 RMK A01 T10741129  RH  065%=      5-min Rain = 0
KAM3 111430Z 27005KT M07/M13 A3018 RMK A01 T10731128  RH  065%=      5-min Rain = 0
KAM3 111431Z 27005KT M07/M13 A3018 RMK A01 T10731128  RH  065%=      5-min Rain = 0
KAM3 111432Z 27006KT M07/M13 A3018 RMK A01 T10721127  RH  065%=      5-min Rain = 0
KAM3 111433Z 27008KT M07/M13 A3018 RMK A01 T10731128  RH  065%=      5-min Rain = 0
KAM3 111434Z 27008KT M07/M13 A3018 RMK A01 T10731128  RH  065%=      5-min Rain = 0
KAM3 111435Z 27007KT M07/M13 A3018 RMK A01 T10731128  RH  065%=      5-min Rain = 0
KAM3 111436Z 27006KT M07/M13 A3018 RMK A01 T10731128  RH  065%=      5-min Rain = 0
KAM3 111437Z 27006KT M07/M13 A3018 RMK A01 T10721127  RH  065%=      5-min Rain = 0
KAM3 111438Z 27005KT M07/M13 A3018 RMK A01 T10721127  RH  065%=      5-min Rain = 0
KAM3 111439Z 27007KT M07/M13 A3018 RMK A01 T10721127  RH  065%=      5-min Rain = 0
KAM3 111440Z 27007KT M07/M13 A3018 RMK A01 T10721127  RH  065%=      5-min Rain = 0
KAM3 111441Z 27006KT M07/M13 A3018 RMK A01 T10711127  RH  065%=      5-min Rain = 0
KAM3 111442Z 28006KT M07/M13 A3017 RMK A01 T10711127  RH  065%=      5-min Rain = 0
KAM3 111443Z 27006KT M07/M13 A3017 RMK A01 T10711127  RH  065%=      5-min Rain = 0
KAM3 111444Z 27006KT M07/M13 A3017 RMK A01 T10711127  RH  065%=      5-min Rain = 0
KAM3 111445Z 28007KT M07/M13 A3017 RMK A01 T10711126  RH  065%=      5-min Rain = 0
KAM3 111446Z 28006KT M07/M13 A3017 RMK A01 T10711126  RH  065%=      5-min Rain = 0
KAM3 111447Z 29008KT M07/M13 A3017 RMK A01 T10711126  RH  065%=      5-min Rain = 0
KAM3 111448Z 29007KT M07/M13 A3017 RMK A01 T10701126  RH  065%=      5-min Rain = 0
KAM3 111449Z 29008KT M07/M13 A3017 RMK A01 T10701126  RH  064%=      5-min Rain = 0
KAM3 111450Z 28008KT M07/M13 A3018 RMK A01 T10701126  RH  065%=      5-min Rain = 0
KAM3 111451Z 28009KT M07/M13 A3018 RMK A01 T10701126  RH  065%=      5-min Rain = 0
KAM3 111452Z 28009KT M07/M13 A3018 RMK A01 T10701126  RH  065%=      5-min Rain = 0
KAM3 111453Z 28008KT M07/M13 A3018 RMK A01 T10701126  RH  065%=      5-min Rain = 0
KAM3 111454Z 28008KT M07/M13 A3018 RMK A01 T10701126  RH  065%=      5-min Rain = 0
KAM3 111455Z 28006KT M07/M13 A3018 RMK A01 T10701126  RH  065%=      5-min Rain = 0
KAM3 111456Z 29007KT M07/M13 A3018 RMK A01 T10701126  RH  065%=      5-min Rain = 0
KAM3 111457Z 28009KT M07/M13 A3018 RMK A01 T10701125  RH  065%=      5-min Rain = 0
KAM3 111458Z 29008KT M07/M13 A3019 RMK A01 T10701126  RH  065%=      5-min Rain = 0
KAM3 111459Z 29007KT M07/M13 A3019 RMK A01 T10701126  RH  065%=      5-min Rain = 0
KAM3 111500Z 28010KT M07/M13 A3019 RMK A01 T10701125  RH  065%=      5-min Rain = 0
KAM3 111501Z 28009KT M07/M13 A3019 RMK A01 T10701125  RH  065%=      5-min Rain = 0
KAM3 111502Z 28008KT M07/M13 A3019 RMK A01 T10701125  RH  065%=      5-min Rain = 0
KAM3 111503Z 29007KT M07/M13 A3019 RMK A01 T10701125  RH  065%=      5-min Rain = 0
KAM3 111504Z 28008KT M07/M13 A3019 RMK A01 T10701125  RH  065%=      5-min Rain = 0
KAM3 111505Z 28008KT M07/M13 A3019 RMK A01 T10701125  RH  065%=      5-min Rain = 0
KAM3 111506Z 28008KT M07/M13 A3019 RMK A01 T10701125  RH  065%=      5-min Rain = 0
KAM3 111507Z 28007KT M07/M12 A3019 RMK A01 T10691124  RH  065%=      5-min Rain = 0
KAM3 111508Z 29009KT M07/M12 A3019 RMK A01 T10681123  RH  065%=      5-min Rain = 0
KAM3 111509Z 29011KT M07/M12 A3019 RMK A01 T10671123  RH  064%=      5-min Rain = 0
KAM3 111510Z 29010KT M07/M12 A3019 RMK A01 T10671123  RH  064%=      5-min Rain = 0
KAM3 111511Z 29009KT M07/M12 A3019 RMK A01 T10671123  RH  064%=      5-min Rain = 0
KAM3 111512Z 28009KT M07/M12 A3019 RMK A01 T10671123  RH  064%=      5-min Rain = 0
KAM3 111513Z 29009KT M07/M12 A3019 RMK A01 T10661123  RH  064%=      5-min Rain = 0
KAM3 111514Z 30008KT M07/M12 A3019 RMK A01 T10661122  RH  064%=      5-min Rain = 0
KAM3 111515Z 29010KT M06/M12 A3019 RMK A01 T10641121  RH  064%=      5-min Rain = 0
KAM3 111516Z 29010KT M06/M12 A3019 RMK A01 T10641121  RH  064%=      5-min Rain = 0
KAM3 111517Z 30009KT M06/M12 A3019 RMK A01 T10641121  RH  064%=      5-min Rain = 0
KAM3 111518Z 30010KT M06/M12 A3019 RMK A01 T10621120  RH  064%=      5-min Rain = 0
KAM3 111519Z 29010KT M06/M12 A3019 RMK A01 T10611119  RH  063%=      5-min Rain = 0
KAM3 111520Z 29009KT M06/M12 A3019 RMK A01 T10591118  RH  063%=      5-min Rain = 0
KAM3 111521Z 29011KT M06/M12 A3019 RMK A01 T10571117  RH  063%=      5-min Rain = 0
KAM3 111522Z 28011KT M06/M12 A3019 RMK A01 T10581119  RH  062%=      5-min Rain = 0
KAM3 111523Z 28007KT M06/M12 A3019 RMK A01 T10591120  RH  062%=      5-min Rain = 0
KAM3 111524Z 28009KT M06/M12 A3019 RMK A01 T10571118  RH  062%=      5-min Rain = 0
KAM3 111525Z 29010KT M06/M12 A3019 RMK A01 T10561117  RH  062%=      5-min Rain = 0
KAM3 111526Z 29011KT M05/M12 A3019 RMK A01 T10541116  RH  062%=      5-min Rain = 0
KAM3 111527Z 29011KT M05/M12 A3019 RMK A01 T10541117  RH  061%=      5-min Rain = 0
KAM3 111528Z 28009KT M05/M12 A3019 RMK A01 T10541118  RH  061%=      5-min Rain = 0
KAM3 111529Z 29007KT M06/M12 A3019 RMK A01 T10551118  RH  061%=      5-min Rain = 0
KAM3 111530Z 30008KT M05/M12 A302 RMK A01 T10511115  RH  061%=      5-min Rain = 0
KAM3 111531Z 31009KT M05/M12 A302 RMK A01 T10501116  RH  060%=      5-min Rain = 0
KAM3 111532Z 30010KT M05/M12 A302 RMK A01 T10501116  RH  060%=      5-min Rain = 0
KAM3 111533Z 29009KT M05/M12 A302 RMK A01 T10501117  RH  059%=      5-min Rain = 0
KAM3 111534Z 29010KT M05/M12 A302 RMK A01 T10501117  RH  059%=      5-min Rain = 0
KAM3 111535Z 29009KT M05/M12 A302 RMK A01 T10481115  RH  060%=      5-min Rain = 0
KAM3 111536Z 29009KT M05/M11 A302 RMK A01 T10461114  RH  059%=      5-min Rain = 0
KAM3 111537Z 29009KT M05/M12 A302 RMK A01 T10461115  RH  058%=      5-min Rain = 0
KAM3 111538Z 28010KT M05/M12 A302 RMK A01 T10461116  RH  058%=      5-min Rain = 0
KAM3 111539Z 29009KT M05/M12 A302 RMK A01 T10461115  RH  058%=      5-min Rain = 0
KAM3 111540Z 29010KT M04/M11 A302 RMK A01 T10441114  RH  058%=      5-min Rain = 0
KAM3 111541Z 28010KT M05/M12 A302 RMK A01 T10451115  RH  058%=      5-min Rain = 0
KAM3 111542Z 28011KT M05/M12 A302 RMK A01 T10451115  RH  058%=      5-min Rain = 0
KAM3 111543Z 28010KT M04/M11 A302 RMK A01 T10441114  RH  058%=      5-min Rain = 0
KAM3 111544Z 28008KT M04/M12 A302 RMK A01 T10441115  RH  058%=      5-min Rain = 0
KAM3 111545Z 28010KT M04/M12 A302 RMK A01 T10441115  RH  058%=      5-min Rain = 0
KAM3 111546Z 29010KT M05/M12 A302 RMK A01 T10461117  RH  057%=      5-min Rain = 0
KAM3 111547Z 29009KT M05/M12 A302 RMK A01 T10481119  RH  058%=      5-min Rain = 0
KAM3 111548Z 30007KT M05/M12 A302 RMK A01 T10491119  RH  058%=      5-min Rain = 0
KAM3 111549Z 30006KT M05/M12 A302 RMK A01 T10501118  RH  059%=      5-min Rain = 0
KAM3 111550Z 29006KT M05/M12 A302 RMK A01 T10491118  RH  059%=      5-min Rain = 0
KAM3 111551Z 29006KT M05/M12 A302 RMK A01 T10491118  RH  059%=      5-min Rain = 0
KAM3 111552Z 29007KT M05/M12 A302 RMK A01 T10481117  RH  059%=      5-min Rain = 0
KAM3 111553Z 28007KT M05/M12 A302 RMK A01 T10471116  RH  058%=      5-min Rain = 0
KAM3 111554Z 28006KT M05/M12 A302 RMK A01 T10471117  RH  058%=      5-min Rain = 0
KAM3 111555Z 30006KT M05/M12 A302 RMK A01 T10471118  RH  058%=      5-min Rain = 0
KAM3 111556Z 30008KT M05/M12 A302 RMK A01 T10481119  RH  058%=      5-min Rain = 0
KAM3 111557Z 30009KT M05/M12 A302 RMK A01 T10491119  RH  058%=      5-min Rain = 0
KAM3 111558Z 29008KT M05/M12 A302 RMK A01 T10491118  RH  059%=      5-min Rain = 0
KAM3 111559Z 29008KT M05/M12 A302 RMK A01 T10481116  RH  059%=      5-min Rain = 0
KAM3 111600Z 30009KT M05/M12 A302 RMK A01 T10461115  RH  059%=      5-min Rain = 0
KAM3 111601Z 29009KT M04/M11 A302 RMK A01 T10441114  RH  058%=      5-min Rain = 0
KAM3 111602Z 28007KT M04/M12 A302 RMK A01 T10441115  RH  057%=      5-min Rain = 0
KAM3 111603Z 28009KT M04/M12 A302 RMK A01 T10441115  RH  057%=      5-min Rain = 0
KAM3 111604Z 29008KT M04/M12 A302 RMK A01 T10441116  RH  057%=      5-min Rain = 0
KAM3 111605Z 28008KT M04/M12 A302 RMK A01 T10431115  RH  057%=      5-min Rain = 0
KAM3 111606Z 29009KT M04/M12 A302 RMK A01 T10411115  RH  056%=      5-min Rain = 0
KAM3 111607Z 28008KT M04/M12 A302 RMK A01 T10401115  RH  056%=      5-min Rain = 0
KAM3 111608Z 28010KT M04/M12 A302 RMK A01 T10401116  RH  055%=      5-min Rain = 0
KAM3 111609Z 28009KT M04/M12 A302 RMK A01 T10401116  RH  055%=      5-min Rain = 0
KAM3 111610Z 30009KT M04/M11 A302 RMK A01 T10381114  RH  056%=      5-min Rain = 0
KAM3 111611Z 30008KT M04/M11 A302 RMK A01 T10361112  RH  055%=      5-min Rain = 0
KAM3 111612Z 29011KT M03/M11 A302 RMK A01 T10331111  RH  055%=      5-min Rain = 0
KAM3 111613Z 30010KT M04/M12 A302 RMK A01 T10351115  RH  054%=      5-min Rain = 0
KAM3 111614Z 28009KT M04/M11 A302 RMK A01 T10351114  RH  054%=      5-min Rain = 0
KAM3 111615Z 29009KT M03/M11 A302 RMK A01 T10331113  RH  054%=      5-min Rain = 0
KAM3 111616Z 30010KT M03/M11 A302 RMK A01 T10321113  RH  054%=      5-min Rain = 0
KAM3 111617Z 29010KT M03/M11 A302 RMK A01 T10331114  RH  053%=      5-min Rain = 0
KAM3 111618Z 28010KT M03/M12 A302 RMK A01 T10341115  RH  053%=      5-min Rain = 0
KAM3 111619Z 28009KT M04/M12 A302 RMK A01 T10351115  RH  054%=      5-min Rain = 0
KAM3 111620Z 28007KT M03/M11 A302 RMK A01 T10321112  RH  054%=      5-min Rain = 0
KAM3 111621Z 30009KT M03/M11 A302 RMK A01 T10291111  RH  053%=      5-min Rain = 0
KAM3 111622Z 30009KT M03/M11 A302 RMK A01 T10291113  RH  053%=      5-min Rain = 0
KAM3 111623Z 31008KT M03/M11 A302 RMK A01 T10281112  RH  053%=      5-min Rain = 0
KAM3 111624Z 30007KT M03/M11 A302 RMK A01 T10271112  RH  052%=      5-min Rain = 0
KAM3 111625Z 29008KT M03/M11 A302 RMK A01 T10261111  RH  052%=      5-min Rain = 0
KAM3 111626Z 33009KT M03/M11 A302 RMK A01 T10261111  RH  052%=      5-min Rain = 0
KAM3 111627Z 33009KT M03/M11 A302 RMK A01 T10261111  RH  052%=      5-min Rain = 0
KAM3 111628Z 31008KT M03/M11 A302 RMK A01 T10271112  RH  052%=      5-min Rain = 0
KAM3 111629Z 33006KT M03/M11 A302 RMK A01 T10271113  RH  052%=      5-min Rain = 0
KAM3 111630Z 31007KT M03/M11 A302 RMK A01 T10261110  RH  052%=      5-min Rain = 0
KAM3 111631Z 31006KT M02/M11 A302 RMK A01 T10231108  RH  052%=      5-min Rain = 0
KAM3 111632Z 30007KT M02/M11 A302 RMK A01 T10231110  RH  051%=      5-min Rain = 0
KAM3 111633Z 29010KT M02/M11 A302 RMK A01 T10211109  RH  051%=      5-min Rain = 0
KAM3 111634Z 31008KT M02/M11 A302 RMK A01 T10221111  RH  050%=      5-min Rain = 0
KAM3 111635Z 31007KT M02/M11 A302 RMK A01 T10231112  RH  051%=      5-min Rain = 0
KAM3 111636Z 30008KT M02/M11 A302 RMK A01 T10201108  RH  051%=      5-min Rain = 0
KAM3 111637Z 30007KT M02/M11 A302 RMK A01 T10191109  RH  050%=      5-min Rain = 0
KAM3 111638Z 30010KT M02/M11 A302 RMK A01 T10191110  RH  050%=      5-min Rain = 0
KAM3 111639Z 30011KT M02/M11 A302 RMK A01 T10191110  RH  050%=      5-min Rain = 0
KAM3 111640Z 30012KT M02/M11 A302 RMK A01 T10181111  RH  049%=      5-min Rain = 0
KAM3 111641Z 32009KT M02/M11 A3021 RMK A01 T10191112  RH  049%=      5-min Rain = 0
KAM3 111642Z 33008KT M02/M11 A302 RMK A01 T10201112  RH  049%=      5-min Rain = 0
KAM3 111643Z 33008KT M02/M11 A302 RMK A01 T10191111  RH  049%=      5-min Rain = 0
KAM3 111644Z 30010G15KT M02/M11 A3021 RMK A01 T10181110  RH  049%=      5-min Rain = 0
KAM3 111645Z 30013KT M02/M11 A302 RMK A01 T10161109  RH  049%=      5-min Rain = 0
KAM3 111646Z 32012KT M02/M11 A302 RMK A01 T10161110  RH  049%=      5-min Rain = 0
KAM3 111647Z 32009KT M02/M11 A302 RMK A01 T10171111  RH  049%=      5-min Rain = 0
KAM3 111648Z 32010KT M02/M11 A302 RMK A01 T10171110  RH  049%=      5-min Rain = 0
KAM3 111649Z 32009KT M01/M11 A302 RMK A01 T10121106  RH  049%=      5-min Rain = 0
KAM3 111650Z 33010KT M01/M11 A302 RMK A01 T10081106  RH  047%=      5-min Rain = 0
KAM3 111651Z 33008KT M01/M11 A302 RMK A01 T10081108  RH  047%=      5-min Rain = 0
KAM3 111652Z 33009KT M01/M11 A302 RMK A01 T10081109  RH  046%=      5-min Rain = 0
KAM3 111653Z 32010KT M01/M11 A302 RMK A01 T10071110  RH  046%=      5-min Rain = 0
KAM3 111654Z 33010KT M01/M11 A302 RMK A01 T10091111  RH  046%=      5-min Rain = 0
KAM3 111655Z 35010KT M01/M11 A302 RMK A01 T10101110  RH  047%=      5-min Rain = 0
KAM3 111656Z 34006KT M01/M11 A302 RMK A01 T10101111  RH  047%=      5-min Rain = 0
KAM3 111657Z 34006KT M01/M11 A302 RMK A01 T10101109  RH  047%=      5-min Rain = 0
KAM3 111658Z 34008KT M01/M11 A302 RMK A01 T10071107  RH  047%=      5-min Rain = 0
KAM3 111659Z 34007KT M01/M11 A302 RMK A01 T10061108  RH  046%=      5-min Rain = 0
KAM3 111700Z 35005KT M01/M11 A302 RMK A01 T10051108  RH  046%=      5-min Rain = 0
KAM3 111701Z 34007KT M01/M11 A302 RMK A01 T10051108  RH  046%=      5-min Rain = 0
KAM3 111702Z 34006KT M00/M11 A302 RMK A01 T10041108  RH  045%=      5-min Rain = 0
KAM3 111703Z 31009KT M00/M11 A302 RMK A01 T10021107  RH  045%=      5-min Rain = 0
KAM3 111704Z 31007KT M00/M11 A302 RMK A01 T10031110  RH  044%=      5-min Rain = 0
KAM3 111705Z 31008KT M00/M11 A302 RMK A01 T10041109  RH  045%=      5-min Rain = 0
KAM3 111706Z 32007KT M00/M11 A302 RMK A01 T10011108  RH  045%=      5-min Rain = 0
KAM3 111707Z 32010KT M00/M11 A302 RMK A01 T10011109  RH  044%=      5-min Rain = 0
KAM3 111708Z 32006KT M00/M11 A302 RMK A01 T10031111  RH  044%=      5-min Rain = 0
KAM3 111709Z 30008KT M00/M11 A302 RMK A01 T10031109  RH  045%=      5-min Rain = 0
KAM3 111710Z 30011KT M00/M11 A302 RMK A01 T10021109  RH  044%=      5-min Rain = 0
KAM3 111711Z 30007KT M00/M11 A302 RMK A01 T10011109  RH  044%=      5-min Rain = 0
KAM3 111712Z 30008KT M00/M11 A302 RMK A01 T10011109  RH  044%=      5-min Rain = 0
KAM3 111713Z 30008KT 00/M11 A302 RMK A01 T00011107  RH  044%=      5-min Rain = 0
KAM3 111714Z 29007KT 00/M11 A302 RMK A01 T00021108  RH  044%=      5-min Rain = 0
KAM3 111715Z 30010KT 00/M11 A302 RMK A01 T00031107  RH  043%=      5-min Rain = 0
KAM3 111716Z 30009KT 00/M11 A302 RMK A01 T00031108  RH  043%=      5-min Rain = 0
KAM3 111717Z 29009KT 00/M11 A302 RMK A01 T00041108  RH  043%=      5-min Rain = 0
KAM3 111718Z 29007KT 01/M11 A302 RMK A01 T00051108  RH  043%=      5-min Rain = 0
KAM3 111719Z 28007KT 01/M11 A302 RMK A01 T00061107  RH  043%=      5-min Rain = 0
KAM3 111720Z 31009KT 01/M11 A302 RMK A01 T00071107  RH  042%=      5-min Rain = 0
KAM3 111721Z 30008KT 01/M11 A302 RMK A01 T00061109  RH  042%=      5-min Rain = 0
KAM3 111722Z 29010KT 01/M11 A3019 RMK A01 T00051109  RH  042%=      5-min Rain = 0
KAM3 111723Z 30008KT 00/M11 A3019 RMK A01 T00041109  RH  042%=      5-min Rain = 0
KAM3 111724Z 30006KT 00/M11 A3019 RMK A01 T00021111  RH  042%=      5-min Rain = 0
KAM3 111725Z 30007KT 00/M11 A3019 RMK A01 T00011110  RH  043%=      5-min Rain = 0
KAM3 111726Z 30010KT 01/M11 A3019 RMK A01 T00051106  RH  043%=      5-min Rain = 0
KAM3 111727Z 29012KT 01/M11 A3019 RMK A01 T00081107  RH  042%=      5-min Rain = 0
KAM3 111728Z 31009KT 01/M11 A3019 RMK A01 T00101108  RH  041%=      5-min Rain = 0
KAM3 111729Z 30007KT 01/M11 A3019 RMK A01 T00091110  RH  041%=      5-min Rain = 0
KAM3 111730Z 30006KT 01/M11 A3019 RMK A01 T00081110  RH  041%=      5-min Rain = 0
KAM3 111731Z 29007KT 01/M11 A3019 RMK A01 T00081110  RH  041%=      5-min Rain = 0
KAM3 111732Z 28006KT 01/M11 A3019 RMK A01 T00081110  RH  041%=      5-min Rain = 0
KAM3 111733Z 30005KT 01/M11 A3019 RMK A01 T00091109  RH  041%=      5-min Rain = 0
KAM3 111734Z 31003KT 01/M11 A3019 RMK A01 T00111108  RH  041%=      5-min Rain = 0
KAM3 111735Z 29006KT 02/M11 A3019 RMK A01 T00151105  RH  040%=      5-min Rain = 0
KAM3 111736Z 27005KT 02/M11 A3019 RMK A01 T00151108  RH  040%=      5-min Rain = 0
KAM3 111737Z 30006KT 02/M11 A3019 RMK A01 T00161108  RH  039%=      5-min Rain = 0
KAM3 111738Z 29005KT 02/M11 A3019 RMK A01 T00151111  RH  039%=      5-min Rain = 0
KAM3 111739Z 30004KT 02/M11 A3019 RMK A01 T00151109  RH  039%=      5-min Rain = 0
KAM3 111740Z 30009KT 02/M11 A3019 RMK A01 T00181109  RH  038%=      5-min Rain = 0
KAM3 111741Z 31009KT 02/M11 A3019 RMK A01 T00191112  RH  037%=      5-min Rain = 0
KAM3 111742Z 31009KT 02/M11 A3019 RMK A01 T00191113  RH  037%=      5-min Rain = 0
KAM3 111743Z 32006KT 02/M11 A3019 RMK A01 T00171114  RH  037%=      5-min Rain = 0
KAM3 111744Z 34005KT 01/M11 A3019 RMK A01 T00141113  RH  038%=      5-min Rain = 0
KAM3 111745Z 34007KT 02/M11 A3019 RMK A01 T00161111  RH  038%=      5-min Rain = 0
KAM3 111746Z 34006KT 02/M11 A3019 RMK A01 T00181112  RH  037%=      5-min Rain = 0
KAM3 111747Z 35005G10KT 02/M12 A3019 RMK A01 T00191119  RH  035%=      5-min Rain = 0
KAM3 111748Z 33009KT 02/M12 A3018 RMK A01 T00211121  RH  034%=      5-min Rain = 0
KAM3 111749Z 33008KT 02/M12 A3018 RMK A01 T00211123  RH  034%=      5-min Rain = 0
KAM3 111750Z 35008KT 02/M12 A3018 RMK A01 T00211122  RH  034%=      5-min Rain = 0
KAM3 111751Z 01006KT 02/M12 A3018 RMK A01 T00231121  RH  034%=      5-min Rain = 0
KAM3 111752Z 34007KT 03/M12 A3018 RMK A01 T00251121  RH  033%=      5-min Rain = 0
KAM3 111753Z 35006KT 03/M12 A3018 RMK A01 T00261123  RH  032%=      5-min Rain = 0
KAM3 111754Z 36004KT 03/M12 A3018 RMK A01 T00261124  RH  032%=      5-min Rain = 0
KAM3 111755Z 31006KT 03/M12 A3018 RMK A01 T00271122  RH  032%=      5-min Rain = 0
KAM3 111756Z 36005KT 03/M12 A3018 RMK A01 T00301122  RH  032%=      5-min Rain = 0
KAM3 111757Z 01007KT 03/M12 A3018 RMK A01 T00301123  RH  032%=      5-min Rain = 0
KAM3 111758Z 35008KT 03/M12 A3018 RMK A01 T00321121  RH  032%=      5-min Rain = 0
KAM3 111759Z 32007KT 03/M13 A3018 RMK A01 T00311125  RH  031%=      5-min Rain = 0
KAM3 111800Z 34007KT 03/M13 A3018 RMK A01 T00301125  RH  031%=      5-min Rain = 0
KAM3 111801Z 35007KT 03/M12 A3018 RMK A01 T00321121  RH  032%=      5-min Rain = 0
KAM3 111802Z 34007KT 03/M12 A3018 RMK A01 T00331122  RH  031%=      5-min Rain = 0
KAM3 111803Z 32007KT 03/M12 A3018 RMK A01 T00341122  RH  031%=      5-min Rain = 0
KAM3 111804Z 33008KT 04/M12 A3018 RMK A01 T00361123  RH  030%=      5-min Rain = 0
KAM3 111805Z 01008KT 04/M12 A3018 RMK A01 T00391120  RH  030%=      5-min Rain = 0
KAM3 111806Z 35007KT 04/M12 A3018 RMK A01 T00411120  RH  030%=      5-min Rain = 0
KAM3 111807Z 33007KT 04/M12 A3018 RMK A01 T00401124  RH  029%=      5-min Rain = 0
KAM3 111808Z 33006KT 04/M13 A3018 RMK A01 T00351129  RH  029%=      5-min Rain = 0
KAM3 111809Z 36006KT 03/M13 A3017 RMK A01 T00321128  RH  030%=      5-min Rain = 0
KAM3 111810Z 01005KT 03/M12 A3017 RMK A01 T00331124  RH  031%=      5-min Rain = 0
KAM3 111811Z 00005KT 04/M12 A3017 RMK A01 T00351122  RH  031%=      5-min Rain = 0
KAM3 111812Z 33006KT 04/M12 A3017 RMK A01 T00381121  RH  030%=      5-min Rain = 0
KAM3 111813Z 32007KT 04/M12 A3017 RMK A01 T00411123  RH  029%=      5-min Rain = 0
KAM3 111814Z 34012KT 04/M13 A3017 RMK A01 T00421125  RH  028%=      5-min Rain = 0
KAM3 111815Z 33011KT 04/M13 A3017 RMK A01 T00391129  RH  028%=      5-min Rain = 0
KAM3 111816Z 35009KT 04/M13 A3017 RMK A01 T00371129  RH  029%=      5-min Rain = 0
KAM3 111817Z 33010KT 04/M13 A3017 RMK A01 T00351130  RH  029%=      5-min Rain = 0
KAM3 111818Z 34009KT 03/M13 A3017 RMK A01 T00341130  RH  029%=      5-min Rain = 0
KAM3 111819Z 32006KT 04/M13 A3017 RMK A01 T00351129  RH  029%=      5-min Rain = 0
KAM3 111820Z 35008KT 04/M13 A3017 RMK A01 T00391127  RH  029%=      5-min Rain = 0
KAM3 111821Z 01010KT 04/M13 A3017 RMK A01 T00391128  RH  028%=      5-min Rain = 0
KAM3 111822Z 00007KT 04/M13 A3017 RMK A01 T00411129  RH  028%=      5-min Rain = 0
KAM3 111823Z 34006KT 04/M13 A3017 RMK A01 T00411129  RH  028%=      5-min Rain = 0
KAM3 111824Z 32006KT 04/M13 A3017 RMK A01 T00411129  RH  028%=      5-min Rain = 0
KAM3 111825Z 34004KT 04/M13 A3017 RMK A01 T00401131  RH  028%=      5-min Rain = 0
KAM3 111826Z 29006KT 04/M13 A3016 RMK A01 T00391131  RH  028%=      5-min Rain = 0
KAM3 111827Z 04006KT 04/M13 A3016 RMK A01 T00401128  RH  028%=      5-min Rain = 0
KAM3 111828Z 00006KT 04/M13 A3016 RMK A01 T00411127  RH  028%=      5-min Rain = 0
KAM3 111829Z 34005KT 04/M13 A3016 RMK A01 T00421125  RH  028%=      5-min Rain = 0
KAM3 111830Z 35006KT 04/M13 A3016 RMK A01 T00431125  RH  028%=      5-min Rain = 0
KAM3 111831Z 03005KT 05/M13 A3016 RMK A01 T00451126  RH  028%=      5-min Rain = 0
KAM3 111832Z 04005KT 04/M13 A3016 RMK A01 T00441128  RH  028%=      5-min Rain = 0
KAM3 111833Z 01007KT 04/M13 A3016 RMK A01 T00401129  RH  028%=      5-min Rain = 0
KAM3 111834Z 01006KT 04/M13 A3016 RMK A01 T00421127  RH  028%=      5-min Rain = 0
KAM3 111835Z 01004KT 04/M13 A3016 RMK A01 T00421129  RH  028%=      5-min Rain = 0
KAM3 111836Z 01008KT 04/M13 A3016 RMK A01 T00431128  RH  028%=      5-min Rain = 0
KAM3 111837Z 35007KT 04/M13 A3016 RMK A01 T00431129  RH  027%=      5-min Rain = 0
KAM3 111838Z 33009KT 04/M13 A3016 RMK A01 T00421130  RH  027%=      5-min Rain = 0
KAM3 111839Z 33004KT 04/M13 A3016 RMK A01 T00401132  RH  027%=      5-min Rain = 0
KAM3 111840Z 35005KT 04/M13 A3016 RMK A01 T00381131  RH  028%=      5-min Rain = 0
KAM3 111841Z 33007KT 04/M13 A3016 RMK A01 T00421127  RH  028%=      5-min Rain = 0
KAM3 111842Z 34006KT 04/M13 A3016 RMK A01 T00431128  RH  028%=      5-min Rain = 0
KAM3 111843Z 00007KT 05/M13 A3016 RMK A01 T00451126  RH  028%=      5-min Rain = 0
KAM3 111844Z 36004KT 04/M13 A3016 RMK A01 T00441129  RH  027%=      5-min Rain = 0
KAM3 111845Z 31005KT 04/M13 A3016 RMK A01 T00441128  RH  027%=      5-min Rain = 0
KAM3 111846Z 33005KT 05/M13 A3016 RMK A01 T00451127  RH  027%=      5-min Rain = 0
KAM3 111847Z 35004KT 05/M13 A3015 RMK A01 T00481126  RH  027%=      5-min Rain = 0
KAM3 111848Z 33005KT 05/M13 A3015 RMK A01 T00481128  RH  027%=      5-min Rain = 0
KAM3 111849Z 02003KT 05/M13 A3015 RMK A01 T00461128  RH  027%=      5-min Rain = 0
KAM3 111850Z 05002KT 05/M13 A3015 RMK A01 T00471128  RH  027%=      5-min Rain = 0
KAM3 111851Z 04000KT 05/M13 A3015 RMK A01 T00471130  RH  026%=      5-min Rain = 0
KAM3 111852Z 27004KT 05/M13 A3015 RMK A01 T00471129  RH  027%=      5-min Rain = 0
KAM3 111853Z 27005KT 05/M13 A3015 RMK A01 T00501127  RH  026%=      5-min Rain = 0
KAM3 111854Z 29005KT 05/M13 A3015 RMK A01 T00501128  RH  026%=      5-min Rain = 0
KAM3 111855Z 30009KT 05/M13 A3015 RMK A01 T00501130  RH  026%=      5-min Rain = 0
KAM3 111856Z 29008KT 05/M13 A3015 RMK A01 T00481131  RH  026%=      5-min Rain = 0
KAM3 111857Z 28006KT 05/M13 A3015 RMK A01 T00481131  RH  026%=      5-min Rain = 0
KAM3 111858Z 31008KT 05/M13 A3015 RMK A01 T00501129  RH  026%=      5-min Rain = 0
KAM3 111859Z 33007KT 05/M13 A3014 RMK A01 T00501130  RH  026%=      5-min Rain = 0
KAM3 111900Z 32006KT 05/M13 A3014 RMK A01 T00471132  RH  026%=      5-min Rain = 0
KAM3 111901Z 31006KT 04/M13 A3014 RMK A01 T00441133  RH  026%=      5-min Rain = 0
KAM3 111902Z 30007KT 05/M13 A3014 RMK A01 T00451131  RH  027%=      5-min Rain = 0
KAM3 111903Z 29003KT 05/M13 A3014 RMK A01 T00451132  RH  026%=      5-min Rain = 0
KAM3 111904Z 31003KT 05/M13 A3014 RMK A01 T00461132  RH  026%=      5-min Rain = 0
KAM3 111905Z 33003KT 05/M13 A3014 RMK A01 T00471131  RH  026%=      5-min Rain = 0
KAM3 111906Z 30005KT 05/M13 A3014 RMK A01 T00481131  RH  026%=      5-min Rain = 0
KAM3 111907Z 30004KT 05/M13 A3014 RMK A01 T00491130  RH  026%=      5-min Rain = 0
KAM3 111908Z 29002KT 05/M13 A3014 RMK A01 T00501131  RH  026%=      5-min Rain = 0
KAM3 111909Z 33002KT 05/M13 A3014 RMK A01 T00491131  RH  026%=      5-min Rain = 0
KAM3 111910Z 02005KT 05/M13 A3013 RMK A01 T00501131  RH  026%=      5-min Rain = 0
KAM3 111911Z 03006KT 05/M14 A3013 RMK A01 T00501136  RH  025%=      5-min Rain = 0
KAM3 111912Z 34007KT 05/M14 A3013 RMK A01 T00511137  RH  024%=      5-min Rain = 0
KAM3 111913Z 34006KT 05/M14 A3013 RMK A01 T00511137  RH  024%=      5-min Rain = 0
KAM3 111914Z 35008KT 05/M13 A3013 RMK A01 T00531134  RH  024%=      5-min Rain = 0
KAM3 111915Z 00006KT 06/M13 A3013 RMK A01 T00561133  RH  024%=      5-min Rain = 0
KAM3 111916Z 01004KT 06/M14 A3013 RMK A01 T00551136  RH  024%=      5-min Rain = 0
KAM3 111917Z 04006KT 05/M14 A3013 RMK A01 T00541135  RH  024%=      5-min Rain = 0
KAM3 111918Z 06003KT 06/M14 A3013 RMK A01 T00551136  RH  024%=      5-min Rain = 0
KAM3 111919Z 07004KT 05/M14 A3013 RMK A01 T00541137  RH  024%=      5-min Rain = 0
KAM3 111920Z 06005KT 05/M14 A3013 RMK A01 T00531137  RH  024%=      5-min Rain = 0
KAM3 111921Z 33008G13KT 05/M14 A3012 RMK A01 T00541135  RH  024%=      5-min Rain = 0
KAM3 111922Z 33006KT 06/M13 A3013 RMK A01 T00571133  RH  024%=      5-min Rain = 0
KAM3 111923Z 36005KT 06/M13 A3013 RMK A01 T00561134  RH  024%=      5-min Rain = 0
KAM3 111924Z 36006KT 06/M14 A3013 RMK A01 T00561135  RH  024%=      5-min Rain = 0
KAM3 111925Z 01005KT 06/M14 A3012 RMK A01 T00551137  RH  024%=      5-min Rain = 0
KAM3 111926Z 33006KT 06/M13 A3012 RMK A01 T00601134  RH  023%=      5-min Rain = 0
KAM3 111927Z 33007KT 06/M13 A3012 RMK A01 T00611134  RH  023%=      5-min Rain = 0
KAM3 111928Z 02007KT 06/M14 A3012 RMK A01 T00601135  RH  023%=      5-min Rain = 0
KAM3 111929Z 01009KT 06/M14 A3012 RMK A01 T00601138  RH  023%=      5-min Rain = 0
KAM3 111930Z 34007KT 06/M14 A3012 RMK A01 T00591137  RH  023%=      5-min Rain = 0
KAM3 111931Z 33010KT 06/M14 A3012 RMK A01 T00591137  RH  023%=      5-min Rain = 0
KAM3 111932Z 35009KT 06/M14 A3013 RMK A01 T00581137  RH  023%=      5-min Rain = 0
KAM3 111933Z 00005KT 06/M14 A3013 RMK A01 T00571140  RH  023%=      5-min Rain = 0
KAM3 111934Z 33005KT 06/M14 A3013 RMK A01 T00561139  RH  023%=      5-min Rain = 0
KAM3 111935Z 33003KT 06/M14 A3013 RMK A01 T00571136  RH  023%=      5-min Rain = 0
KAM3 111936Z 35002KT 06/M14 A3012 RMK A01 T00571137  RH  023%=      5-min Rain = 0
KAM3 111937Z 32004KT 06/M14 A3012 RMK A01 T00591136  RH  023%=      5-min Rain = 0
KAM3 111938Z 35005KT 06/M14 A3012 RMK A01 T00591136  RH  023%=      5-min Rain = 0
KAM3 111939Z 34004KT 06/M14 A3012 RMK A01 T00591137  RH  023%=      5-min Rain = 0
KAM3 111940Z 30005KT 06/M14 A3012 RMK A01 T00591139  RH  023%=      5-min Rain = 0
KAM3 111941Z 28005KT 06/M14 A3012 RMK A01 T00601136  RH  023%=      5-min Rain = 0
KAM3 111942Z 27006KT 06/M14 A3012 RMK A01 T00631135  RH  023%=      5-min Rain = 0
KAM3 111943Z 29004KT 06/M14 A3011 RMK A01 T00631137  RH  022%=      5-min Rain = 0
KAM3 111944Z 33003KT 06/M14 A3011 RMK A01 T00641135  RH  022%=      5-min Rain = 0
KAM3 111945Z 32003KT 07/M14 A3011 RMK A01 T00651136  RH  022%=      5-min Rain = 0
KAM3 111946Z 02002KT 06/M14 A3011 RMK A01 T00641138  RH  022%=      5-min Rain = 0
KAM3 111947Z 02003KT 06/M14 A3011 RMK A01 T00641138  RH  022%=      5-min Rain = 0
KAM3 111948Z 02004KT 06/M14 A3011 RMK A01 T00641137  RH  022%=      5-min Rain = 0
KAM3 111949Z 00005KT 06/M14 A3011 RMK A01 T00641136  RH  022%=      5-min Rain = 0
KAM3 111950Z 36006KT 07/M14 A3011 RMK A01 T00661141  RH  021%=      5-min Rain = 0
KAM3 111951Z 35005KT 07/M14 A3011 RMK A01 T00661144  RH  021%=      5-min Rain = 0
KAM3 111952Z 33003KT 07/M15 A3011 RMK A01 T00651146  RH  020%=      5-min Rain = 0
KAM3 111953Z 34002KT 07/M15 A3011 RMK A01 T00651145  RH  021%=      5-min Rain = 0
KAM3 111954Z 05003KT 07/M14 A301 RMK A01 T00671141  RH  021%=      5-min Rain = 0
KAM3 111955Z 03003KT 07/M14 A301 RMK A01 T00671141  RH  021%=      5-min Rain = 0
KAM3 111956Z 35003KT 07/M14 A301 RMK A01 T00671139  RH  021%=      5-min Rain = 0
KAM3 111957Z 01005KT 07/M14 A301 RMK A01 T00681138  RH  021%=      5-min Rain = 0
KAM3 111958Z 04002KT 07/M14 A301 RMK A01 T00691137  RH  021%=      5-min Rain = 0
KAM3 111959Z 06004KT 07/M14 A301 RMK A01 T00681135  RH  022%=      5-min Rain = 0
KAM3 112000Z 09004KT 07/M14 A301 RMK A01 T00691137  RH  021%=      5-min Rain = 0
KAM3 112001Z 07003KT 07/M14 A301 RMK A01 T00691136  RH  022%=      5-min Rain = 0
KAM3 112002Z 01005KT 07/M14 A301 RMK A01 T00681137  RH  022%=      5-min Rain = 0
KAM3 112003Z 35006KT 07/M14 A301 RMK A01 T00691139  RH  021%=      5-min Rain = 0
KAM3 112004Z 36003KT 07/M14 A301 RMK A01 T00691141  RH  021%=      5-min Rain = 0
KAM3 112005Z 04006KT 07/M14 A301 RMK A01 T00701139  RH  021%=      5-min Rain = 0
KAM3 112006Z 04008KT 07/M14 A301 RMK A01 T00701140  RH  021%=      5-min Rain = 0
KAM3 112007Z 05007KT 07/M14 A301 RMK A01 T00691140  RH  021%=      5-min Rain = 0
KAM3 112008Z 04004KT 07/M14 A301 RMK A01 T00691140  RH  021%=      5-min Rain = 0
KAM3 112009Z 02008KT 07/M14 A301 RMK A01 T00691139  RH  021%=      5-min Rain = 0
KAM3 112010Z 02007KT 07/M14 A301 RMK A01 T00671142  RH  021%=      5-min Rain = 0
KAM3 112011Z 09006KT 07/M14 A301 RMK A01 T00651143  RH  021%=      5-min Rain = 0
KAM3 112012Z 12004KT 06/M14 A301 RMK A01 T00641142  RH  021%=      5-min Rain = 0
KAM3 112013Z 14002KT 06/M14 A301 RMK A01 T00641141  RH  021%=      5-min Rain = 0
KAM3 112014Z 07003KT 06/M14 A301 RMK A01 T00641141  RH  021%=      5-min Rain = 0
KAM3 112015Z 05005KT 06/M14 A3011 RMK A01 T00631142  RH  021%=      5-min Rain = 0
KAM3 112016Z 06005KT 06/M14 A3011 RMK A01 T00631141  RH  022%=      5-min Rain = 0
KAM3 112017Z 09005KT 06/M14 A3011 RMK A01 T00641141  RH  021%=      5-min Rain = 0
KAM3 112018Z 12003KT 06/M14 A3011 RMK A01 T00641142  RH  021%=      5-min Rain = 0
KAM3 112019Z 10001KT 06/M14 A3011 RMK A01 T00641142  RH  021%=      5-min Rain = 0
KAM3 112020Z 14000KT 07/M14 A3011 RMK A01 T00651142  RH  021%=      5-min Rain = 0
KAM3 112021Z 22001KT 07/M14 A3011 RMK A01 T00661142  RH  021%=      5-min Rain = 0
KAM3 112022Z 23001KT 07/M14 A3011 RMK A01 T00671142  RH  021%=      5-min Rain = 0
KAM3 112023Z 03004KT 07/M14 A3011 RMK A01 T00681141  RH  021%=      5-min Rain = 0
KAM3 112024Z 02005KT 07/M14 A3011 RMK A01 T00701142  RH  020%=      5-min Rain = 0
KAM3 112025Z 03004KT 07/M14 A3011 RMK A01 T00691144  RH  020%=      5-min Rain = 0
KAM3 112026Z 01006KT 07/M14 A3011 RMK A01 T00681144  RH  020%=      5-min Rain = 0
KAM3 112027Z 34004KT 07/M14 A3011 RMK A01 T00681144  RH  020%=      5-min Rain = 0
KAM3 112028Z 34005KT 07/M14 A301 RMK A01 T00681143  RH  021%=      5-min Rain = 0
KAM3 112029Z 34004KT 07/M14 A3011 RMK A01 T00711140  RH  021%=      5-min Rain = 0
KAM3 112030Z 35003KT 07/M14 A3011 RMK A01 T00711141  RH  021%=      5-min Rain = 0
KAM3 112031Z 01007KT 07/M14 A3011 RMK A01 T00721139  RH  021%=      5-min Rain = 0
KAM3 112032Z 00006KT 07/M14 A3011 RMK A01 T00741139  RH  020%=      5-min Rain = 0
KAM3 112033Z 01008KT 08/M14 A3011 RMK A01 T00751139  RH  020%=      5-min Rain = 0
KAM3 112034Z 00007KT 07/M14 A3011 RMK A01 T00741141  RH  020%=      5-min Rain = 0
KAM3 112035Z 34007KT 07/M14 A3011 RMK A01 T00721142  RH  020%=      5-min Rain = 0
KAM3 112036Z 31006KT 08/M14 A3011 RMK A01 T00751137  RH  020%=      5-min Rain = 0
KAM3 112037Z 30007KT 07/M14 A3011 RMK A01 T00741141  RH  020%=      5-min Rain = 0
KAM3 112038Z 30003KT 07/M15 A3011 RMK A01 T00701145  RH  020%=      5-min Rain = 0
KAM3 112039Z 32003KT 07/M14 A3011 RMK A01 T00691143  RH  020%=      5-min Rain = 0
KAM3 112040Z 36006KT 07/M14 A3011 RMK A01 T00701141  RH  021%=      5-min Rain = 0
KAM3 112041Z 35005KT 07/M14 A3011 RMK A01 T00721141  RH  020%=      5-min Rain = 0
KAM3 112042Z 02003KT 07/M14 A3011 RMK A01 T00711142  RH  020%=      5-min Rain = 0
KAM3 112043Z 16001KT 07/M14 A3011 RMK A01 T00701143  RH  020%=      5-min Rain = 0
KAM3 112044Z 01005KT 07/M14 A3011 RMK A01 T00691143  RH  020%=      5-min Rain = 0
KAM3 112045Z 01002KT 07/M14 A3011 RMK A01 T00681143  RH  020%=      5-min Rain = 0
KAM3 112046Z 32003KT 07/M14 A3011 RMK A01 T00671143  RH  021%=      5-min Rain = 0
KAM3 112047Z 33002KT 07/M14 A3011 RMK A01 T00671143  RH  021%=      5-min Rain = 0
KAM3 112048Z 33002KT 07/M14 A3011 RMK A01 T00691142  RH  021%=      5-min Rain = 0
KAM3 112049Z 04003KT 07/M14 A301 RMK A01 T00701142  RH  021%=      5-min Rain = 0
KAM3 112050Z 05006KT 07/M14 A301 RMK A01 T00711140  RH  021%=      5-min Rain = 0
KAM3 112051Z 06005KT 07/M14 A301 RMK A01 T00731141  RH  020%=      5-min Rain = 0
KAM3 112052Z 05003KT 07/M14 A301 RMK A01 T00731141  RH  020%=      5-min Rain = 0
KAM3 112053Z 07002KT 08/M14 A301 RMK A01 T00751138  RH  020%=      5-min Rain = 0
KAM3 112054Z 05003KT 08/M14 A301 RMK A01 T00781137  RH  020%=      5-min Rain = 0
KAM3 112055Z 08002KT 08/M14 A301 RMK A01 T00781141  RH  020%=      5-min Rain = 0
KAM3 112056Z 08002KT 08/M14 A301 RMK A01 T00771140  RH  020%=      5-min Rain = 0
KAM3 112057Z 11004KT 08/M14 A301 RMK A01 T00771141  RH  020%=      5-min Rain = 0
KAM3 112058Z 12004KT 08/M14 A3011 RMK A01 T00761141  RH  020%=      5-min Rain = 0
KAM3 112059Z 11004KT 08/M14 A3011 RMK A01 T00771140  RH  020%=      5-min Rain = 0
KAM3 112100Z 09002KT 08/M14 A3011 RMK A01 T00771139  RH  020%=      5-min Rain = 0
KAM3 112101Z 09003KT 08/M14 A3011 RMK A01 T00781139  RH  020%=      5-min Rain = 0
KAM3 112102Z 08002KT 08/M14 A3011 RMK A01 T00791138  RH  020%=      5-min Rain = 0
KAM3 112103Z 08002KT 08/M14 A3011 RMK A01 T00801139  RH  020%=      5-min Rain = 0
KAM3 112104Z 20002KT 08/M14 A301 RMK A01 T00801139  RH  020%=      5-min Rain = 0
KAM3 112105Z 20001KT 08/M14 A301 RMK A01 T00801138  RH  020%=      5-min Rain = 0
KAM3 112106Z 28001KT 08/M14 A3011 RMK A01 T00821137  RH  020%=      5-min Rain = 0
KAM3 112107Z 34003KT 08/M14 A3011 RMK A01 T00841138  RH  019%=      5-min Rain = 0
KAM3 112108Z 33007KT 09/M14 A3011 RMK A01 T00851141  RH  019%=      5-min Rain = 0
KAM3 112109Z 34005KT 08/M14 A3011 RMK A01 T00831143  RH  018%=      5-min Rain = 0
KAM3 112110Z 32008KT 08/M15 A3011 RMK A01 T00801146  RH  019%=      5-min Rain = 0
KAM3 112111Z 32006KT 08/M15 A3011 RMK A01 T00781145  RH  019%=      5-min Rain = 0
KAM3 112112Z 32007KT 08/M14 A3011 RMK A01 T00771143  RH  019%=      5-min Rain = 0
KAM3 112113Z 34006KT 08/M14 A3011 RMK A01 T00771142  RH  019%=      5-min Rain = 0
KAM3 112114Z 32002KT 08/M14 A3011 RMK A01 T00781142  RH  019%=      5-min Rain = 0
KAM3 112115Z 31001G6KT 08/M14 A3011 RMK A01 T00781144  RH  019%=      5-min Rain = 0
KAM3 112116Z 36007KT 08/M14 A3011 RMK A01 T00781144  RH  019%=      5-min Rain = 0
KAM3 112117Z 33007KT 08/M14 A3011 RMK A01 T00791141  RH  019%=      5-min Rain = 0
KAM3 112118Z 34004KT 08/M14 A3011 RMK A01 T00811143  RH  019%=      5-min Rain = 0
KAM3 112119Z 33004KT 08/M14 A3011 RMK A01 T00801143  RH  019%=      5-min Rain = 0
KAM3 112120Z 29003KT 08/M14 A3011 RMK A01 T00791144  RH  019%=      5-min Rain = 0
KAM3 112121Z 35004KT 08/M15 A3011 RMK A01 T00781145  RH  019%=      5-min Rain = 0
KAM3 112122Z 34005KT 08/M14 A3011 RMK A01 T00791144  RH  019%=      5-min Rain = 0
KAM3 112123Z 00006KT 08/M14 A3011 RMK A01 T00791144  RH  019%=      5-min Rain = 0
KAM3 112124Z 35006KT 08/M14 A3011 RMK A01 T00811142  RH  019%=      5-min Rain = 0
KAM3 112125Z 33006KT 08/M14 A3011 RMK A01 T00821143  RH  019%=      5-min Rain = 0
KAM3 112126Z 29008KT 08/M14 A3011 RMK A01 T00831143  RH  019%=      5-min Rain = 0
KAM3 112127Z 32006KT 08/M15 A3011 RMK A01 T00821145  RH  018%=      5-min Rain = 0
KAM3 112128Z 32006KT 08/M15 A3011 RMK A01 T00811145  RH  019%=      5-min Rain = 0
KAM3 112129Z 31004KT 08/M15 A3011 RMK A01 T00801146  RH  019%=      5-min Rain = 0
KAM3 112130Z 29005KT 08/M15 A3011 RMK A01 T00781146  RH  019%=      5-min Rain = 0
KAM3 112131Z 33005KT 08/M15 A3011 RMK A01 T00791145  RH  019%=      5-min Rain = 0
KAM3 112132Z 32006KT 08/M15 A3011 RMK A01 T00791146  RH  019%=      5-min Rain = 0
KAM3 112133Z 32005KT 08/M15 A3011 RMK A01 T00781147  RH  019%=      5-min Rain = 0
KAM3 112134Z 32004KT 08/M15 A3011 RMK A01 T00761147  RH  019%=      5-min Rain = 0
KAM3 112135Z 34005KT 08/M15 A3011 RMK A01 T00761146  RH  019%=      5-min Rain = 0
KAM3 112136Z 01004KT 08/M15 A3011 RMK A01 T00761145  RH  019%=      5-min Rain = 0
KAM3 112137Z 01002KT 08/M14 A3011 RMK A01 T00781144  RH  019%=      5-min Rain = 0
KAM3 112138Z 34003G8KT 08/M14 A3011 RMK A01 T00781144  RH  019%=      5-min Rain = 0
KAM3 112139Z 31008KT 08/M14 A3011 RMK A01 T00801143  RH  019%=      5-min Rain = 0
KAM3 112140Z 32007KT 08/M14 A3011 RMK A01 T00821141  RH  019%=      5-min Rain = 0
KAM3 112141Z 34005KT 08/M14 A3011 RMK A01 T00831141  RH  019%=      5-min Rain = 0
KAM3 112142Z 34005KT 09/M14 A3011 RMK A01 T00851142  RH  018%=      5-min Rain = 0
KAM3 112143Z 34002KT 08/M14 A3011 RMK A01 T00831144  RH  018%=      5-min Rain = 0
KAM3 112144Z 35001KT 08/M15 A3011 RMK A01 T00811145  RH  019%=      5-min Rain = 0
KAM3 112145Z 27001KT 08/M14 A3011 RMK A01 T00811143  RH  019%=      5-min Rain = 0
KAM3 112146Z 26002KT 08/M15 A3011 RMK A01 T00821145  RH  018%=      5-min Rain = 0
KAM3 112147Z 25003KT 08/M15 A3011 RMK A01 T00821146  RH  018%=      5-min Rain = 0
KAM3 112148Z 29003KT 08/M15 A3011 RMK A01 T00821146  RH  018%=      5-min Rain = 0
KAM3 112149Z 29002KT 08/M15 A3011 RMK A01 T00811145  RH  018%=      5-min Rain = 0
KAM3 112150Z 02004KT 08/M15 A3011 RMK A01 T00801146  RH  018%=      5-min Rain = 0
KAM3 112151Z 02007KT 08/M15 A3011 RMK A01 T00811145  RH  018%=      5-min Rain = 0
KAM3 112152Z 03004KT 08/M15 A3011 RMK A01 T00811146  RH  018%=      5-min Rain = 0
KAM3 112153Z 04005KT 08/M15 A3011 RMK A01 T00801148  RH  018%=      5-min Rain = 0
KAM3 112154Z 04004KT 08/M15 A3011 RMK A01 T00801148  RH  018%=      5-min Rain = 0
KAM3 112155Z 08001KT 08/M15 A3011 RMK A01 T00781148  RH  018%=      5-min Rain = 0
KAM3 112156Z 06002KT 08/M15 A3011 RMK A01 T00791147  RH  018%=      5-min Rain = 0
KAM3 112157Z 07004KT 08/M15 A3011 RMK A01 T00801146  RH  018%=      5-min Rain = 0
KAM3 112158Z 06003KT 08/M15 A3011 RMK A01 T00821146  RH  018%=      5-min Rain = 0
KAM3 112159Z 07003KT 08/M15 A3011 RMK A01 T00811148  RH  018%=      5-min Rain = 0
KAM3 112200Z 06002KT 08/M15 A3011 RMK A01 T00801147  RH  018%=      5-min Rain = 0
KAM3 112201Z 03002KT 08/M15 A3011 RMK A01 T00791147  RH  018%=      5-min Rain = 0
KAM3 112202Z 06002KT 08/M15 A3011 RMK A01 T00801147  RH  018%=      5-min Rain = 0
KAM3 112203Z 04001KT 08/M15 A3011 RMK A01 T00801147  RH  018%=      5-min Rain = 0
KAM3 112204Z 30001KT 08/M15 A3011 RMK A01 T00801148  RH  018%=      5-min Rain = 0
KAM3 112205Z 34004KT 08/M15 A3011 RMK A01 T00801147  RH  018%=      5-min Rain = 0
KAM3 112206Z 01003KT 08/M15 A3011 RMK A01 T00821146  RH  018%=      5-min Rain = 0
KAM3 112207Z 35004KT 08/M15 A3011 RMK A01 T00821146  RH  018%=      5-min Rain = 0
KAM3 112208Z 33007KT 08/M15 A301 RMK A01 T00821145  RH  018%=      5-min Rain = 0
KAM3 112209Z 33006KT 08/M14 A301 RMK A01 T00831144  RH  018%=      5-min Rain = 0
KAM3 112210Z 34005KT 09/M14 A301 RMK A01 T00851144  RH  018%=      5-min Rain = 0
KAM3 112211Z 34005KT 09/M14 A301 RMK A01 T00861144  RH  018%=      5-min Rain = 0
KAM3 112212Z 32005KT 09/M15 A301 RMK A01 T00851145  RH  018%=      5-min Rain = 0
KAM3 112213Z 29004KT 08/M15 A301 RMK A01 T00831147  RH  018%=      5-min Rain = 0
KAM3 112214Z 29005KT 08/M15 A301 RMK A01 T00821146  RH  018%=      5-min Rain = 0
KAM3 112215Z 29005KT 08/M14 A301 RMK A01 T00841143  RH  018%=      5-min Rain = 0
KAM3 112216Z 28003KT 08/M14 A3011 RMK A01 T00841144  RH  018%=      5-min Rain = 0
KAM3 112217Z 32004KT 08/M14 A3011 RMK A01 T00841144  RH  018%=      5-min Rain = 0
KAM3 112218Z 31006KT 08/M14 A3011 RMK A01 T00841144  RH  018%=      5-min Rain = 0
KAM3 112219Z 30006KT 08/M15 A3011 RMK A01 T00841145  RH  018%=      5-min Rain = 0
KAM3 112220Z 27006KT 08/M15 A3011 RMK A01 T00831145  RH  018%=      5-min Rain = 0
KAM3 112221Z 28004KT 08/M15 A3011 RMK A01 T00821145  RH  018%=      5-min Rain = 0
KAM3 112222Z 25003KT 08/M15 A3011 RMK A01 T00811145  RH  018%=      5-min Rain = 0
KAM3 112223Z 29003KT 08/M15 A3011 RMK A01 T00811145  RH  018%=      5-min Rain = 0
KAM3 112224Z 32004KT 08/M14 A301 RMK A01 T00821144  RH  018%=      5-min Rain = 0
KAM3 112225Z 32005KT 08/M14 A301 RMK A01 T00831144  RH  018%=      5-min Rain = 0
KAM3 112226Z 32004KT 08/M14 A301 RMK A01 T00841144  RH  018%=      5-min Rain = 0
KAM3 112227Z 33004KT 09/M14 A301 RMK A01 T00851144  RH  018%=      5-min Rain = 0
KAM3 112228Z 30003KT 09/M14 A301 RMK A01 T00851144  RH  018%=      5-min Rain = 0
KAM3 112229Z 27003KT 09/M15 A301 RMK A01 T00851145  RH  018%=      5-min Rain = 0
KAM3 112230Z 26002KT 09/M15 A301 RMK A01 T00851146  RH  018%=      5-min Rain = 0
KAM3 112231Z 29004KT 09/M15 A301 RMK A01 T00851145  RH  018%=      5-min Rain = 0
KAM3 112232Z 28002KT 09/M15 A301 RMK A01 T00851146  RH  018%=      5-min Rain = 0
KAM3 112233Z 00006KT 09/M15 A301 RMK A01 T00851146  RH  018%=      5-min Rain = 0
KAM3 112234Z 36004KT 08/M15 A301 RMK A01 T00841147  RH  018%=      5-min Rain = 0
KAM3 112235Z 34004KT 08/M15 A301 RMK A01 T00831148  RH  018%=      5-min Rain = 0
KAM3 112236Z 34004KT 08/M15 A301 RMK A01 T00831147  RH  018%=      5-min Rain = 0
KAM3 112237Z 01002KT 08/M15 A301 RMK A01 T00831146  RH  018%=      5-min Rain = 0
KAM3 112238Z 02005KT 09/M15 A301 RMK A01 T00851146  RH  018%=      5-min Rain = 0
KAM3 112239Z 32007KT 09/M15 A301 RMK A01 T00851147  RH  018%=      5-min Rain = 0
KAM3 112240Z 30003KT 09/M15 A301 RMK A01 T00851145  RH  018%=      5-min Rain = 0
KAM3 112241Z 31003KT 09/M15 A301 RMK A01 T00851145  RH  018%=      5-min Rain = 0
KAM3 112242Z 30004KT 08/M15 A301 RMK A01 T00841145  RH  018%=      5-min Rain = 0
KAM3 112243Z 28004KT 08/M14 A301 RMK A01 T00841144  RH  018%=      5-min Rain = 0
KAM3 112244Z 28003KT 08/M14 A301 RMK A01 T00841144  RH  018%=      5-min Rain = 0
KAM3 112245Z 32002KT 08/M14 A3011 RMK A01 T00841144  RH  018%=      5-min Rain = 0
KAM3 112246Z 33002KT 08/M15 A3011 RMK A01 T00831145  RH  018%=      5-min Rain = 0
KAM3 112247Z 26003KT 08/M15 A3011 RMK A01 T00831145  RH  018%=      5-min Rain = 0
KAM3 112248Z 24003KT 08/M14 A3011 RMK A01 T00841144  RH  018%=      5-min Rain = 0
KAM3 112249Z 24002KT 08/M14 A3011 RMK A01 T00841144  RH  018%=      5-min Rain = 0
KAM3 112250Z 22004KT 08/M14 A3011 RMK A01 T00841144  RH  018%=      5-min Rain = 0
KAM3 112251Z 22004KT 09/M14 A3011 RMK A01 T00851144  RH  018%=      5-min Rain = 0
KAM3 112252Z 24002KT 08/M14 A3011 RMK A01 T00841144  RH  018%=      5-min Rain = 0
KAM3 112253Z 21003KT 08/M14 A3011 RMK A01 T00841144  RH  018%=      5-min Rain = 0
KAM3 112254Z 23003KT 09/M14 A3011 RMK A01 T00851143  RH  018%=      5-min Rain = 0
KAM3 112255Z 26001KT 09/M14 A3011 RMK A01 T00851143  RH  018%=      5-min Rain = 0
KAM3 112256Z 24001KT 09/M14 A3011 RMK A01 T00851143  RH  018%=      5-min Rain = 0
KAM3 112257Z 21002KT 09/M14 A3011 RMK A01 T00871141  RH  018%=      5-min Rain = 0
KAM3 112258Z 20003KT 09/M14 A3011 RMK A01 T00881141  RH  018%=      5-min Rain = 0
KAM3 112259Z 20003KT 09/M14 A3011 RMK A01 T00871141  RH  018%=      5-min Rain = 0
KAM3 112300Z 18002KT 09/M14 A3011 RMK A01 T00861142  RH  018%=      5-min Rain = 0
KAM3 112301Z 19002KT 09/M14 A3011 RMK A01 T00851142  RH  018%=      5-min Rain = 0
KAM3 112302Z 16002KT 09/M14 A3011 RMK A01 T00851142  RH  018%=      5-min Rain = 0
KAM3 112303Z 14003KT 09/M14 A3011 RMK A01 T00851142  RH  018%=      5-min Rain = 0
KAM3 112304Z 13002KT 08/M14 A3011 RMK A01 T00841142  RH  019%=      5-min Rain = 0
KAM3 112305Z 11001KT 08/M14 A3011 RMK A01 T00841141  RH  019%=      5-min Rain = 0
KAM3 112306Z 07000KT 09/M14 A3011 RMK A01 T00851141  RH  019%=      5-min Rain = 0
KAM3 112307Z 33001KT 09/M14 A3011 RMK A01 T00871140  RH  018%=      5-min Rain = 0
KAM3 112308Z 31003KT 09/M14 A3011 RMK A01 T00881140  RH  018%=      5-min Rain = 0
KAM3 112309Z 33003KT 09/M14 A3011 RMK A01 T00881140  RH  018%=      5-min Rain = 0
KAM3 112310Z 33002KT 09/M14 A3011 RMK A01 T00861141  RH  018%=      5-min Rain = 0
KAM3 112311Z 33001KT 09/M14 A3011 RMK A01 T00851141  RH  019%=      5-min Rain = 0
KAM3 112312Z 32001KT 09/M14 A3011 RMK A01 T00851140  RH  019%=      5-min Rain = 0
KAM3 112313Z 36001KT 09/M14 A3011 RMK A01 T00871139  RH  019%=      5-min Rain = 0
KAM3 112314Z 35001KT 09/M14 A3011 RMK A01 T00871140  RH  018%=      5-min Rain = 0
KAM3 112315Z 34002KT 09/M14 A3011 RMK A01 T00871140  RH  019%=      5-min Rain = 0
KAM3 112316Z 32004KT 09/M14 A3011 RMK A01 T00861140  RH  019%=      5-min Rain = 0
KAM3 112317Z 30003KT 09/M14 A3011 RMK A01 T00851141  RH  019%=      5-min Rain = 0
KAM3 112318Z 30002KT 08/M14 A3011 RMK A01 T00831142  RH  019%=      5-min Rain = 0
KAM3 112319Z 32001KT 08/M14 A3011 RMK A01 T00821141  RH  019%=      5-min Rain = 0
KAM3 112320Z 00002KT 08/M14 A3011 RMK A01 T00831140  RH  019%=      5-min Rain = 0
KAM3 112321Z 01002KT 08/M14 A3011 RMK A01 T00831141  RH  019%=      5-min Rain = 0
KAM3 112322Z 02002KT 08/M14 A3011 RMK A01 T00811142  RH  019%=      5-min Rain = 0
KAM3 112323Z 02002KT 08/M14 A3011 RMK A01 T00801143  RH  019%=      5-min Rain = 0
KAM3 112324Z 03002KT 08/M14 A3011 RMK A01 T00791141  RH  019%=      5-min Rain = 0
KAM3 112325Z 10001KT 08/M14 A3011 RMK A01 T00791141  RH  019%=      5-min Rain = 0
KAM3 112326Z 11001KT 08/M14 A3011 RMK A01 T00791141  RH  019%=      5-min Rain = 0
KAM3 112327Z 12001KT 08/M14 A3011 RMK A01 T00791140  RH  020%=      5-min Rain = 0
KAM3 112328Z 15002KT 08/M14 A3011 RMK A01 T00801140  RH  019%=      5-min Rain = 0
KAM3 112329Z 14002KT 08/M14 A3011 RMK A01 T00801140  RH  019%=      5-min Rain = 0
KAM3 112330Z 14002KT 08/M14 A3011 RMK A01 T00801141  RH  019%=      5-min Rain = 0
KAM3 112331Z 12002KT 08/M14 A3011 RMK A01 T00801140  RH  019%=      5-min Rain = 0
KAM3 112332Z 12002KT 08/M14 A3011 RMK A01 T00801141  RH  019%=      5-min Rain = 0
KAM3 112333Z 12002KT 08/M14 A3011 RMK A01 T00791140  RH  019%=      5-min Rain = 0
KAM3 112334Z 12001KT 08/M14 A3011 RMK A01 T00781141  RH  019%=      5-min Rain = 0
KAM3 112335Z 11002KT 08/M14 A3011 RMK A01 T00791141  RH  019%=      5-min Rain = 0
KAM3 112336Z 11001KT 08/M14 A3011 RMK A01 T00781141  RH  019%=      5-min Rain = 0
KAM3 112337Z 13001KT 08/M14 A3011 RMK A01 T00781141  RH  019%=      5-min Rain = 0
KAM3 112338Z 13001KT 08/M14 A3011 RMK A01 T00791140  RH  019%=      5-min Rain = 0
KAM3 112339Z 12001KT 08/M14 A3011 RMK A01 T00781141  RH  020%=      5-min Rain = 0
KAM3 112340Z 12001KT 08/M14 A3011 RMK A01 T00791140  RH  019%=      5-min Rain = 0
KAM3 112341Z 13002KT 08/M14 A3011 RMK A01 T00801141  RH  019%=      5-min Rain = 0
KAM3 112342Z 14002KT 08/M14 A3011 RMK A01 T00801141  RH  019%=      5-min Rain = 0
KAM3 112343Z 14001KT 08/M14 A3011 RMK A01 T00811140  RH  019%=      5-min Rain = 0
KAM3 112344Z 13001KT 08/M14 A3011 RMK A01 T00811140  RH  019%=      5-min Rain = 0
KAM3 112345Z 13002KT 08/M14 A3011 RMK A01 T00811141  RH  019%=      5-min Rain = 0
KAM3 112346Z 13002KT 08/M14 A3011 RMK A01 T00801141  RH  019%=      5-min Rain = 0
KAM3 112347Z 13002KT 08/M14 A3011 RMK A01 T00781142  RH  019%=      5-min Rain = 0
KAM3 112348Z 15002KT 08/M14 A3011 RMK A01 T00781142  RH  019%=      5-min Rain = 0
KAM3 112349Z 15003KT 08/M14 A3011 RMK A01 T00771141  RH  019%=      5-min Rain = 0
KAM3 112350Z 15002KT 08/M14 A3011 RMK A01 T00781141  RH  020%=      5-min Rain = 0
KAM3 112351Z 15002KT 08/M14 A3011 RMK A01 T00771141  RH  020%=      5-min Rain = 0
KAM3 112352Z 13002KT 08/M14 A3011 RMK A01 T00771141  RH  020%=      5-min Rain = 0
KAM3 112353Z 12003KT 08/M14 A3011 RMK A01 T00771143  RH  019%=      5-min Rain = 0
KAM3 112354Z 12003KT 08/M14 A3011 RMK A01 T00751144  RH  019%=      5-min Rain = 0
KAM3 112355Z 13003KT 07/M15 A3011 RMK A01 T00741145  RH  019%=      5-min Rain = 0
KAM3 112356Z 13003KT 07/M15 A3011 RMK A01 T00721145  RH  020%=      5-min Rain = 0
KAM3 112357Z 13003KT 07/M15 A3011 RMK A01 T00711145  RH  020%=      5-min Rain = 0
KAM3 112358Z 13003KT 07/M15 A3011 RMK A01 T00711145  RH  020%=      5-min Rain = 0
KAM3 112359Z 14003KT 07/M14 A3012 RMK A01 T00701144  RH  020%=      5-min Rain = 0
KAM3 120000Z 14003KT 07/M14 A3011 RMK A01 T00701144  RH  020%=      5-min Rain = 0
KAM3 120001Z 14003KT 07/M14 A3011 RMK A01 T00701144  RH  020%=      5-min Rain = 0
KAM3 120002Z 14003KT 07/M14 A3011 RMK A01 T00701144  RH  020%=      5-min Rain = 0
KAM3 120003Z 14003KT 07/M14 A3011 RMK A01 T00701144  RH  020%=      5-min Rain = 0
KAM3 120004Z 14003KT 07/M14 A3011 RMK A01 T00701144  RH  020%=      5-min Rain = 0
KAM3 120005Z 14003KT 07/M14 A3012 RMK A01 T00691144  RH  020%=      5-min Rain = 0
KAM3 120006Z 14003KT 07/M14 A3012 RMK A01 T00691144  RH  020%=      5-min Rain = 0
KAM3 120007Z 14003KT 07/M15 A3012 RMK A01 T00681145  RH  020%=      5-min Rain = 0
KAM3 120008Z 14003KT 07/M14 A3012 RMK A01 T00681144  RH  020%=      5-min Rain = 0
KAM3 120009Z 14003KT 07/M14 A3012 RMK A01 T00681144  RH  020%=      5-min Rain = 0
KAM3 120010Z 14003KT 07/M14 A3012 RMK A01 T00681144  RH  020%=      5-min Rain = 0
KAM3 120011Z 13003KT 07/M14 A3012 RMK A01 T00671144  RH  020%=      5-min Rain = 0
KAM3 120012Z 13003KT 07/M14 A3012 RMK A01 T00661144  RH  021%=      5-min Rain = 0
KAM3 120013Z 13003KT 07/M14 A3012 RMK A01 T00661144  RH  021%=      5-min Rain = 0
KAM3 120014Z 13003KT 07/M15 A3012 RMK A01 T00651145  RH  021%=      5-min Rain = 0
KAM3 120015Z 13003KT 06/M14 A3012 RMK A01 T00641144  RH  021%=      5-min Rain = 0
KAM3 120016Z 13003KT 06/M14 A3012 RMK A01 T00641144  RH  021%=      5-min Rain = 0
KAM3 120017Z 13003KT 06/M15 A3012 RMK A01 T00641146  RH  021%=      5-min Rain = 0
KAM3 120018Z 13003KT 06/M15 A3012 RMK A01 T00641146  RH  021%=      5-min Rain = 0
KAM3 120019Z 13003KT 06/M15 A3012 RMK A01 T00631145  RH  021%=      5-min Rain = 0
KAM3 120020Z 13003KT 06/M15 A3012 RMK A01 T00631145  RH  021%=      5-min Rain = 0
KAM3 120021Z 13003KT 06/M14 A3012 RMK A01 T00621144  RH  021%=      5-min Rain = 0
KAM3 120022Z 13003KT 06/M14 A3012 RMK A01 T00621144  RH  021%=      5-min Rain = 0
KAM3 120023Z 13003KT 06/M14 A3012 RMK A01 T00611144  RH  021%=      5-min Rain = 0
KAM3 120024Z 13003KT 06/M14 A3012 RMK A01 T00611144  RH  021%=      5-min Rain = 0
KAM3 120025Z 13003KT 06/M14 A3012 RMK A01 T00601144  RH  021%=      5-min Rain = 0
KAM3 120026Z 13003KT 06/M14 A3012 RMK A01 T00601144  RH  022%=      5-min Rain = 0
KAM3 120027Z 13003KT 06/M14 A3012 RMK A01 T00591144  RH  022%=      5-min Rain = 0
KAM3 120028Z 12003KT 06/M14 A3012 RMK A01 T00591144  RH  022%=      5-min Rain = 0
KAM3 120029Z 12003KT 06/M14 A3012 RMK A01 T00591144  RH  022%=      5-min Rain = 0
KAM3 120030Z 12003KT 06/M14 A3012 RMK A01 T00601143  RH  022%=      5-min Rain = 0
KAM3 120031Z 12003KT 06/M14 A3012 RMK A01 T00601144  RH  022%=      5-min Rain = 0
KAM3 120032Z 12003KT 06/M14 A3013 RMK A01 T00601144  RH  022%=      5-min Rain = 0
KAM3 120033Z 13004KT 06/M14 A3013 RMK A01 T00591144  RH  022%=      5-min Rain = 0
KAM3 120034Z 13004KT 06/M15 A3013 RMK A01 T00581145  RH  022%=      5-min Rain = 0
KAM3 120035Z 13005KT 06/M15 A3013 RMK A01 T00571147  RH  022%=      5-min Rain = 0
KAM3 120036Z 13005KT 06/M15 A3013 RMK A01 T00551147  RH  022%=      5-min Rain = 0
KAM3 120037Z 13005KT 06/M15 A3013 RMK A01 T00551147  RH  022%=      5-min Rain = 0
KAM3 120038Z 13005KT 05/M15 A3013 RMK A01 T00541148  RH  022%=      5-min Rain = 0
KAM3 120039Z 13005KT 05/M15 A3013 RMK A01 T00521148  RH  022%=      5-min Rain = 0
KAM3 120040Z 13005KT 05/M15 A3013 RMK A01 T00511148  RH  022%=      5-min Rain = 0
KAM3 120041Z 13005KT 05/M15 A3013 RMK A01 T00511148  RH  022%=      5-min Rain = 0
KAM3 120042Z 13005KT 05/M15 A3013 RMK A01 T00501148  RH  022%=      5-min Rain = 0
KAM3 120043Z 13006KT 05/M15 A3013 RMK A01 T00491148  RH  022%=      5-min Rain = 0
KAM3 120044Z 13006KT 05/M15 A3013 RMK A01 T00471149  RH  023%=      5-min Rain = 0
KAM3 120045Z 13005KT 05/M15 A3013 RMK A01 T00451150  RH  023%=      5-min Rain = 0
KAM3 120046Z 13005KT 04/M15 A3013 RMK A01 T00441150  RH  023%=      5-min Rain = 0
KAM3 120047Z 13005KT 04/M15 A3013 RMK A01 T00431150  RH  023%=      5-min Rain = 0
KAM3 120048Z 13005KT 04/M15 A3013 RMK A01 T00421150  RH  023%=      5-min Rain = 0
KAM3 120049Z 13005KT 04/M15 A3013 RMK A01 T00411150  RH  023%=      5-min Rain = 0
KAM3 120050Z 14006KT 04/M15 A3013 RMK A01 T00401151  RH  023%=      5-min Rain = 0
KAM3 120051Z 14006KT 04/M15 A3013 RMK A01 T00381151  RH  024%=      5-min Rain = 0
KAM3 120052Z 13007KT 04/M15 A3013 RMK A01 T00351152  RH  024%=      5-min Rain = 0
KAM3 120053Z 13006KT 03/M15 A3013 RMK A01 T00331153  RH  024%=      5-min Rain = 0
KAM3 120054Z 13006KT 03/M15 A3013 RMK A01 T00291154  RH  025%=      5-min Rain = 0
KAM3 120055Z 13007KT 03/M15 A3013 RMK A01 T00261154  RH  025%=      5-min Rain = 0
KAM3 120056Z 13006KT 02/M15 A3013 RMK A01 T00241154  RH  025%=      5-min Rain = 0
KAM3 120057Z 13006KT 02/M15 A3013 RMK A01 T00221154  RH  026%=      5-min Rain = 0
KAM3 120058Z 13006KT 02/M15 A3013 RMK A01 T00201154  RH  026%=      5-min Rain = 0
KAM3 120059Z 12006KT 02/M16 A3013 RMK A01 T00181155  RH  026%=      5-min Rain = 0
KAM3 120100Z 13006KT 02/M15 A3013 RMK A01 T00171154  RH  027%=      5-min Rain = 0
KAM3 120101Z 13006KT 02/M15 A3013 RMK A01 T00161154  RH  027%=      5-min Rain = 0
KAM3 120102Z 13006KT 02/M15 A3013 RMK A01 T00171153  RH  027%=      5-min Rain = 0
KAM3 120103Z 12006KT 02/M15 A3013 RMK A01 T00161153  RH  027%=      5-min Rain = 0
KAM3 120104Z 12006KT 01/M15 A3013 RMK A01 T00141153  RH  028%=      5-min Rain = 0
KAM3 120105Z 12006KT 01/M15 A3013 RMK A01 T00131154  RH  028%=      5-min Rain = 0
KAM3 120106Z 13006KT 01/M15 A3013 RMK A01 T00131154  RH  028%=      5-min Rain = 0
KAM3 120107Z 13006KT 01/M15 A3013 RMK A01 T00131154  RH  028%=      5-min Rain = 0
KAM3 120108Z 12006KT 01/M15 A3013 RMK A01 T00141153  RH  028%=      5-min Rain = 0
KAM3 120109Z 12006KT 01/M15 A3013 RMK A01 T00141153  RH  028%=      5-min Rain = 0
KAM3 120110Z 13006KT 01/M15 A3013 RMK A01 T00141153  RH  028%=      5-min Rain = 0
KAM3 120111Z 12006KT 01/M15 A3013 RMK A01 T00131153  RH  028%=      5-min Rain = 0
KAM3 120112Z 12006KT 01/M15 A3013 RMK A01 T00131153  RH  028%=      5-min Rain = 0
KAM3 120113Z 12006KT 01/M15 A3013 RMK A01 T00131153  RH  028%=      5-min Rain = 0
KAM3 120114Z 12006KT 01/M15 A3013 RMK A01 T00141152  RH  028%=      5-min Rain = 0
KAM3 120115Z 12006KT 02/M15 A3013 RMK A01 T00151152  RH  028%=      5-min Rain = 0
KAM3 120116Z 12006KT 02/M15 A3013 RMK A01 T00151152  RH  028%=      5-min Rain = 0
KAM3 120117Z 12006KT 02/M15 A3013 RMK A01 T00151152  RH  028%=      5-min Rain = 0
KAM3 120118Z 12007KT 02/M15 A3014 RMK A01 T00151152  RH  028%=      5-min Rain = 0
KAM3 120119Z 12007KT 02/M15 A3014 RMK A01 T00151152  RH  028%=      5-min Rain = 0
KAM3 120120Z 13006KT 01/M15 A3014 RMK A01 T00141152  RH  028%=      5-min Rain = 0
KAM3 120121Z 13006KT 01/M15 A3014 RMK A01 T00141152  RH  028%=      5-min Rain = 0
KAM3 120122Z 12006KT 01/M15 A3014 RMK A01 T00141152  RH  028%=      5-min Rain = 0
KAM3 120123Z 13006KT 01/M15 A3014 RMK A01 T00141152  RH  028%=      5-min Rain = 0
KAM3 120124Z 12006KT 02/M15 A3014 RMK A01 T00151151  RH  028%=      5-min Rain = 0
KAM3 120125Z 12006KT 02/M15 A3014 RMK A01 T00151152  RH  028%=      5-min Rain = 0
KAM3 120126Z 12006KT 01/M15 A3014 RMK A01 T00141152  RH  028%=      5-min Rain = 0
KAM3 120127Z 12006KT 01/M15 A3014 RMK A01 T00141152  RH  028%=      5-min Rain = 0
KAM3 120128Z 13006KT 01/M15 A3014 RMK A01 T00141152  RH  028%=      5-min Rain = 0
KAM3 120129Z 12006KT 01/M15 A3014 RMK A01 T00141152  RH  028%=      5-min Rain = 0
KAM3 120130Z 13006KT 02/M15 A3014 RMK A01 T00151151  RH  028%=      5-min Rain = 0
KAM3 120131Z 13007KT 02/M15 A3014 RMK A01 T00151151  RH  028%=      5-min Rain = 0
KAM3 120132Z 12006KT 01/M15 A3014 RMK A01 T00141151  RH  028%=      5-min Rain = 0
KAM3 120133Z 12006KT 01/M15 A3014 RMK A01 T00141152  RH  028%=      5-min Rain = 0
KAM3 120134Z 12006KT 02/M15 A3014 RMK A01 T00151151  RH  028%=      5-min Rain = 0
KAM3 120135Z 12006KT 02/M15 A3014 RMK A01 T00151151  RH  028%=      5-min Rain = 0
KAM3 120136Z 12006KT 01/M15 A3014 RMK A01 T00141152  RH  028%=      5-min Rain = 0
KAM3 120137Z 13006KT 01/M15 A3014 RMK A01 T00131152  RH  028%=      5-min Rain = 0
KAM3 120138Z 13007KT 01/M15 A3015 RMK A01 T00141151  RH  028%=      5-min Rain = 0
KAM3 120139Z 13006KT 01/M15 A3015 RMK A01 T00141152  RH  028%=      5-min Rain = 0
KAM3 120140Z 13006KT 01/M15 A3015 RMK A01 T00141151  RH  028%=      5-min Rain = 0
KAM3 120141Z 13005KT 02/M15 A3015 RMK A01 T00151151  RH  028%=      5-min Rain = 0
KAM3 120142Z 13006KT 02/M15 A3015 RMK A01 T00151151  RH  028%=      5-min Rain = 0
KAM3 120143Z 13005KT 02/M15 A3015 RMK A01 T00151152  RH  028%=      5-min Rain = 0
KAM3 120144Z 12006KT 01/M15 A3015 RMK A01 T00141152  RH  028%=      5-min Rain = 0
KAM3 120145Z 12006KT 01/M15 A3015 RMK A01 T00141152  RH  028%=      5-min Rain = 0
KAM3 120146Z 13007KT 01/M15 A3015 RMK A01 T00131152  RH  028%=      5-min Rain = 0
KAM3 120147Z 12007KT 01/M15 A3015 RMK A01 T00111153  RH  028%=      5-min Rain = 0
KAM3 120148Z 12007KT 01/M15 A3015 RMK A01 T00111152  RH  028%=      5-min Rain = 0
KAM3 120149Z 12008KT 01/M15 A3015 RMK A01 T00111152  RH  028%=      5-min Rain = 0
KAM3 120150Z 11007KT 01/M15 A3015 RMK A01 T00111153  RH  028%=      5-min Rain = 0
KAM3 120151Z 12007KT 01/M15 A3015 RMK A01 T00081154  RH  029%=      5-min Rain = 0
KAM3 120152Z 12007KT 01/M16 A3015 RMK A01 T00051155  RH  029%=      5-min Rain = 0
KAM3 120153Z 12007KT 00/M16 A3015 RMK A01 T00031155  RH  029%=      5-min Rain = 0
KAM3 120154Z 12007KT 00/16 A3015 RMK A01 T00000-156  RH  030%=      5-min Rain = 0
KAM3 120155Z 12007KT M00/M16 A3015 RMK A01 T10011155  RH  030%=      5-min Rain = 0
KAM3 120156Z 12007KT M00/M15 A3015 RMK A01 T10011154  RH  030%=      5-min Rain = 0
KAM3 120157Z 12007KT M00/M15 A3015 RMK A01 T10021154  RH  031%=      5-min Rain = 0
KAM3 120158Z 12007KT M00/M15 A3015 RMK A01 T10031154  RH  031%=      5-min Rain = 0
KAM3 120159Z 12007KT M00/M16 A3015 RMK A01 T10041155  RH  031%=      5-min Rain = 0
KAM3 120200Z 11007KT M01/M16 A3015 RMK A01 T10051155  RH  031%=      5-min Rain = 0
KAM3 120201Z 12007KT M01/M16 A3015 RMK A01 T10061155  RH  031%=      5-min Rain = 0
KAM3 120202Z 12007KT M00/M15 A3016 RMK A01 T10041153  RH  032%=      5-min Rain = 0
KAM3 120203Z 12007KT M00/M15 A3016 RMK A01 T10041153  RH  031%=      5-min Rain = 0
KAM3 120204Z 13006KT M00/M15 A3016 RMK A01 T10041154  RH  031%=      5-min Rain = 0
KAM3 120205Z 13007KT M00/M15 A3016 RMK A01 T10021153  RH  031%=      5-min Rain = 0
KAM3 120206Z 13007KT M00/M15 A3016 RMK A01 T10011152  RH  031%=      5-min Rain = 0
KAM3 120207Z 13007KT M00/M15 A3016 RMK A01 T10011153  RH  031%=      5-min Rain = 0
KAM3 120208Z 13008KT M00/M15 A3016 RMK A01 T10021154  RH  031%=      5-min Rain = 0
KAM3 120209Z 14009KT M00/M15 A3016 RMK A01 T10021153  RH  031%=      5-min Rain = 0
KAM3 120210Z 13010KT M00/M15 A3016 RMK A01 T10021153  RH  031%=      5-min Rain = 0
KAM3 120211Z 13009KT 00/15 A3016 RMK A01 T00-00-152  RH  031%=      5-min Rain = 0
KAM3 120212Z 13008KT 00/M15 A3017 RMK A01 T00011153  RH  030%=      5-min Rain = 0
KAM3 120213Z 13008KT 00/M15 A3017 RMK A01 T00011153  RH  030%=      5-min Rain = 0
KAM3 120214Z 13007KT 00/M15 A3017 RMK A01 T00011154  RH  030%=      5-min Rain = 0
KAM3 120215Z 13007KT 00/M15 A3017 RMK A01 T00011154  RH  030%=      5-min Rain = 0
KAM3 120216Z 14007KT 00/M15 A3017 RMK A01 T00011154  RH  030%=      5-min Rain = 0
KAM3 120217Z 14008KT 00/M15 A3017 RMK A01 T00011153  RH  030%=      5-min Rain = 0
KAM3 120218Z 14007KT 00/M15 A3017 RMK A01 T00011153  RH  030%=      5-min Rain = 0
KAM3 120219Z 14007KT 00/15 A3017 RMK A01 T00000-154  RH  030%=      5-min Rain = 0
KAM3 120220Z 14007KT M00/M16 A3017 RMK A01 T10021155  RH  030%=      5-min Rain = 0
KAM3 120221Z 15007KT M00/M16 A3017 RMK A01 T10041155  RH  031%=      5-min Rain = 0
KAM3 120222Z 14007KT M01/M16 A3017 RMK A01 T10061156  RH  031%=      5-min Rain = 0
KAM3 120223Z 14008KT M01/M16 A3017 RMK A01 T10081157  RH  031%=      5-min Rain = 0
KAM3 120224Z 14008KT M01/M16 A3017 RMK A01 T10091157  RH  032%=      5-min Rain = 0
KAM3 120225Z 13009KT M01/M16 A3017 RMK A01 T10081156  RH  032%=      5-min Rain = 0
KAM3 120226Z 13008KT M01/M15 A3017 RMK A01 T10051153  RH  032%=      5-min Rain = 0
KAM3 120227Z 13008KT M00/M15 A3017 RMK A01 T10021152  RH  031%=      5-min Rain = 0
KAM3 120228Z 13007KT M00/M15 A3017 RMK A01 T10011152  RH  031%=      5-min Rain = 0
KAM3 120229Z 13007KT M00/M15 A3017 RMK A01 T10011153  RH  031%=      5-min Rain = 0
KAM3 120230Z 13007KT M00/M15 A3017 RMK A01 T10021153  RH  031%=      5-min Rain = 0
KAM3 120231Z 13008KT M00/M15 A3017 RMK A01 T10021153  RH  031%=      5-min Rain = 0
KAM3 120232Z 14008KT M00/M15 A3017 RMK A01 T10021153  RH  031%=      5-min Rain = 0
KAM3 120233Z 14007KT M00/M15 A3017 RMK A01 T10031153  RH  031%=      5-min Rain = 0
KAM3 120234Z 14007KT M00/M15 A3017 RMK A01 T10031153  RH  031%=      5-min Rain = 0
KAM3 120235Z 13007KT M00/M15 A3017 RMK A01 T10031153  RH  031%=      5-min Rain = 0
KAM3 120236Z 13007KT M00/M15 A3017 RMK A01 T10031153  RH  031%=      5-min Rain = 0
KAM3 120237Z 13007KT M00/M15 A3017 RMK A01 T10041154  RH  031%=      5-min Rain = 0
KAM3 120238Z 13007KT M01/M16 A3017 RMK A01 T10051155  RH  031%=      5-min Rain = 0
KAM3 120239Z 13007KT M01/M16 A3017 RMK A01 T10061155  RH  031%=      5-min Rain = 0
KAM3 120240Z 13007KT M01/M16 A3017 RMK A01 T10061155  RH  032%=      5-min Rain = 0
KAM3 120241Z 13007KT M01/M16 A3017 RMK A01 T10071155  RH  032%=      5-min Rain = 0
KAM3 120242Z 13008KT M01/M16 A3017 RMK A01 T10081156  RH  032%=      5-min Rain = 0
KAM3 120243Z 13008KT M01/M16 A3017 RMK A01 T10081155  RH  032%=      5-min Rain = 0
KAM3 120244Z 13008KT M01/M16 A3017 RMK A01 T10091155  RH  032%=      5-min Rain = 0
KAM3 120245Z 13008KT M01/M16 A3017 RMK A01 T10091156  RH  032%=      5-min Rain = 0
KAM3 120246Z 13008KT M01/M16 A3017 RMK A01 T10101155  RH  032%=      5-min Rain = 0
KAM3 120247Z 14008KT M01/M16 A3017 RMK A01 T10101155  RH  032%=      5-min Rain = 0
KAM3 120248Z 14009KT M01/M16 A3017 RMK A01 T10101155  RH  032%=      5-min Rain = 0
KAM3 120249Z 14009KT M01/M15 A3017 RMK A01 T10091154  RH  032%=      5-min Rain = 0
KAM3 120250Z 14008KT M01/M15 A3017 RMK A01 T10081154  RH  032%=      5-min Rain = 0
KAM3 120251Z 15009KT M01/M15 A3017 RMK A01 T10081154  RH  032%=      5-min Rain = 0
KAM3 120252Z 15008KT M01/M16 A3017 RMK A01 T10091156  RH  032%=      5-min Rain = 0
KAM3 120253Z 15008KT M01/M16 A3017 RMK A01 T10111157  RH  032%=      5-min Rain = 0
KAM3 120254Z 15008KT M01/M16 A3017 RMK A01 T10131157  RH  032%=      5-min Rain = 0
KAM3 120255Z 16008KT M01/M16 A3017 RMK A01 T10141157  RH  033%=      5-min Rain = 0
KAM3 120256Z 16008KT M02/M16 A3017 RMK A01 T10171158  RH  033%=      5-min Rain = 0
KAM3 120257Z 16009KT M02/M16 A3017 RMK A01 T10181157  RH  034%=      5-min Rain = 0
KAM3 120258Z 15009KT M02/M16 A3017 RMK A01 T10191157  RH  034%=      5-min Rain = 0
KAM3 120259Z 15009KT M02/M16 A3017 RMK A01 T10191156  RH  034%=      5-min Rain = 0
KAM3 120300Z 15009KT M02/M16 A3017 RMK A01 T10191156  RH  034%=      5-min Rain = 0
KAM3 120301Z 16009KT M02/M16 A3017 RMK A01 T10201156  RH  034%=      5-min Rain = 0
KAM3 120302Z 16009KT M02/M16 A3017 RMK A01 T10191156  RH  035%=      5-min Rain = 0
KAM3 120303Z 16009KT M02/M16 A3016 RMK A01 T10201156  RH  035%=      5-min Rain = 0
KAM3 120304Z 15009KT M02/M16 A3016 RMK A01 T10211156  RH  035%=      5-min Rain = 0
KAM3 120305Z 15009KT M02/M16 A3016 RMK A01 T10221157  RH  035%=      5-min Rain = 0
KAM3 120306Z 15008KT M02/M16 A3016 RMK A01 T10231156  RH  035%=      5-min Rain = 0
KAM3 120307Z 16008KT M02/M16 A3017 RMK A01 T10241157  RH  035%=      5-min Rain = 0
KAM3 120308Z 16008KT M03/M16 A3017 RMK A01 T10261157  RH  036%=      5-min Rain = 0
KAM3 120309Z 16008KT M03/M16 A3017 RMK A01 T10271157  RH  036%=      5-min Rain = 0
KAM3 120310Z 16008KT M03/M16 A3017 RMK A01 T10271156  RH  036%=      5-min Rain = 0
KAM3 120311Z 16009KT M03/M16 A3017 RMK A01 T10271156  RH  036%=      5-min Rain = 0
KAM3 120312Z 16009KT M03/M15 A3017 RMK A01 T10251154  RH  036%=      5-min Rain = 0
KAM3 120313Z 16009KT M02/M15 A3017 RMK A01 T10241154  RH  036%=      5-min Rain = 0
KAM3 120314Z 16010KT M02/M15 A3017 RMK A01 T10231153  RH  036%=      5-min Rain = 0
KAM3 120315Z 16010KT M02/M15 A3017 RMK A01 T10211153  RH  036%=      5-min Rain = 0
KAM3 120316Z 17010KT M02/M15 A3017 RMK A01 T10201153  RH  035%=      5-min Rain = 0
KAM3 120317Z 16010KT M02/M15 A3017 RMK A01 T10191153  RH  035%=      5-min Rain = 0
KAM3 120318Z 16010KT M02/M15 A3017 RMK A01 T10191153  RH  035%=      5-min Rain = 0
KAM3 120319Z 16011KT M02/M15 A3017 RMK A01 T10181154  RH  035%=      5-min Rain = 0
KAM3 120320Z 16011KT M02/M15 A3017 RMK A01 T10181154  RH  034%=      5-min Rain = 0
KAM3 120321Z 16010KT M02/M15 A3017 RMK A01 T10181154  RH  034%=      5-min Rain = 0
KAM3 120322Z 17010KT M02/M15 A3017 RMK A01 T10171154  RH  034%=      5-min Rain = 0
KAM3 120323Z 17010KT M02/M16 A3017 RMK A01 T10171155  RH  034%=      5-min Rain = 0
KAM3 120324Z 17010KT M02/M16 A3017 RMK A01 T10171155  RH  034%=      5-min Rain = 0
KAM3 120325Z 16010KT M02/M15 A3017 RMK A01 T10161154  RH  034%=      5-min Rain = 0
KAM3 120326Z 17010KT M02/M15 A3017 RMK A01 T10151154  RH  034%=      5-min Rain = 0
KAM3 120327Z 17010KT M02/M15 A3017 RMK A01 T10151154  RH  034%=      5-min Rain = 0
KAM3 120328Z 16010KT M01/M15 A3017 RMK A01 T10141154  RH  034%=      5-min Rain = 0
KAM3 120329Z 17010KT M02/M15 A3017 RMK A01 T10151154  RH  034%=      5-min Rain = 0
KAM3 120330Z 17010KT M02/M15 A3017 RMK A01 T10151154  RH  034%=      5-min Rain = 0
KAM3 120331Z 17010KT M02/M16 A3017 RMK A01 T10161155  RH  034%=      5-min Rain = 0
KAM3 120332Z 16010KT M02/M16 A3017 RMK A01 T10161155  RH  034%=      5-min Rain = 0
KAM3 120333Z 16010KT M02/M16 A3017 RMK A01 T10171155  RH  034%=      5-min Rain = 0
KAM3 120334Z 16010KT M02/M16 A3017 RMK A01 T10171155  RH  034%=      5-min Rain = 0
KAM3 120335Z 16010KT M02/M16 A3017 RMK A01 T10171155  RH  034%=      5-min Rain = 0
KAM3 120336Z 16010KT M02/M16 A3017 RMK A01 T10171155  RH  034%=      5-min Rain = 0
KAM3 120337Z 16010KT M02/M16 A3017 RMK A01 T10171155  RH  034%=      5-min Rain = 0
KAM3 120338Z 16010KT M02/M16 A3017 RMK A01 T10181156  RH  034%=      5-min Rain = 0
KAM3 120339Z 16010KT M02/M16 A3017 RMK A01 T10181156  RH  034%=      5-min Rain = 0
KAM3 120340Z 16010KT M02/M16 A3017 RMK A01 T10191156  RH  034%=      5-min Rain = 0
KAM3 120341Z 16010KT M02/M16 A3017 RMK A01 T10201157  RH  034%=      5-min Rain = 0
KAM3 120342Z 16010KT M02/M16 A3017 RMK A01 T10201156  RH  034%=      5-min Rain = 0
KAM3 120343Z 16010KT M02/M16 A3017 RMK A01 T10201157  RH  034%=      5-min Rain = 0
KAM3 120344Z 16010KT M02/M16 A3017 RMK A01 T10201156  RH  034%=      5-min Rain = 0
KAM3 120345Z 16010KT M02/M16 A3017 RMK A01 T10211157  RH  034%=      5-min Rain = 0
KAM3 120346Z 16010KT M02/M16 A3017 RMK A01 T10211157  RH  034%=      5-min Rain = 0
KAM3 120347Z 16010KT M02/M16 A3017 RMK A01 T10211157  RH  034%=      5-min Rain = 0
KAM3 120348Z 16011KT M02/M16 A3017 RMK A01 T10211157  RH  034%=      5-min Rain = 0
KAM3 120349Z 16011KT M02/M16 A3017 RMK A01 T10211157  RH  034%=      5-min Rain = 0
KAM3 120350Z 16011KT M02/M16 A3017 RMK A01 T10211157  RH  034%=      5-min Rain = 0
KAM3 120351Z 16011KT M02/M16 A3017 RMK A01 T10211157  RH  034%=      5-min Rain = 0
KAM3 120352Z 16010KT M02/M16 A3017 RMK A01 T10211157  RH  034%=      5-min Rain = 0
KAM3 120353Z 16011KT M02/M16 A3017 RMK A01 T10201157  RH  034%=      5-min Rain = 0
KAM3 120354Z 16010KT M02/M16 A3017 RMK A01 T10201157  RH  034%=      5-min Rain = 0
KAM3 120355Z 16010KT M02/M16 A3017 RMK A01 T10201157  RH  034%=      5-min Rain = 0
KAM3 120356Z 16010KT M02/M16 A3017 RMK A01 T10201158  RH  034%=      5-min Rain = 0
KAM3 120357Z 16010KT M02/M16 A3017 RMK A01 T10211158  RH  034%=      5-min Rain = 0
KAM3 120358Z 16011KT M02/M16 A3017 RMK A01 T10211158  RH  034%=      5-min Rain = 0
KAM3 120359Z 16010KT M02/M16 A3017 RMK A01 T10221158  RH  034%=      5-min Rain = 0
KAM3 120400Z 16010KT M02/M16 A3017 RMK A01 T10221158  RH  034%=      5-min Rain = 0
KAM3 120401Z 16010KT M02/M16 A3017 RMK A01 T10231158  RH  035%=      5-min Rain = 0
KAM3 120402Z 16010KT M02/M16 A3017 RMK A01 T10231158  RH  035%=      5-min Rain = 0
KAM3 120403Z 16010KT M02/M16 A3017 RMK A01 T10231158  RH  035%=      5-min Rain = 0
KAM3 120404Z 16010KT M02/M16 A3017 RMK A01 T10231158  RH  035%=      5-min Rain = 0
KAM3 120405Z 16009KT M02/M16 A3017 RMK A01 T10231158  RH  035%=      5-min Rain = 0
KAM3 120406Z 16009KT M02/M16 A3017 RMK A01 T10241159  RH  035%=      5-min Rain = 0
KAM3 120407Z 16009KT M02/M16 A3017 RMK A01 T10241159  RH  035%=      5-min Rain = 0
KAM3 120408Z 16009KT M02/M16 A3017 RMK A01 T10241159  RH  035%=      5-min Rain = 0
KAM3 120409Z 16010KT M02/M16 A3017 RMK A01 T10241159  RH  035%=      5-min Rain = 0
KAM3 120410Z 16010KT M02/M16 A3018 RMK A01 T10231159  RH  035%=      5-min Rain = 0
KAM3 120411Z 16010KT M02/M16 A3018 RMK A01 T10241159  RH  035%=      5-min Rain = 0
KAM3 120412Z 16010KT M02/M16 A3018 RMK A01 T10241159  RH  034%=      5-min Rain = 0
KAM3 120413Z 16011KT M02/M16 A3018 RMK A01 T10241160  RH  034%=      5-min Rain = 0
KAM3 120414Z 16010KT M02/M16 A3018 RMK A01 T10231159  RH  034%=      5-min Rain = 0
KAM3 120415Z 16010KT M02/M16 A3018 RMK A01 T10231159  RH  034%=      5-min Rain = 0
KAM3 120416Z 16010KT M02/M16 A3018 RMK A01 T10231160  RH  034%=      5-min Rain = 0
KAM3 120417Z 16011KT M02/M16 A3017 RMK A01 T10241160  RH  034%=      5-min Rain = 0
KAM3 120418Z 16011KT M02/M16 A3017 RMK A01 T10241160  RH  034%=      5-min Rain = 0
KAM3 120419Z 16011KT M02/M16 A3017 RMK A01 T10231159  RH  034%=      5-min Rain = 0
KAM3 120420Z 16012KT M02/M16 A3017 RMK A01 T10221159  RH  034%=      5-min Rain = 0
KAM3 120421Z 16011KT M02/M16 A3017 RMK A01 T10211159  RH  034%=      5-min Rain = 0
KAM3 120422Z 16011KT M02/M16 A3017 RMK A01 T10201159  RH  034%=      5-min Rain = 0
KAM3 120423Z 16011KT M02/M16 A3017 RMK A01 T10201159  RH  034%=      5-min Rain = 0
KAM3 120424Z 16012KT M02/M16 A3017 RMK A01 T10201159  RH  033%=      5-min Rain = 0
KAM3 120425Z 16012KT M02/M16 A3017 RMK A01 T10191159  RH  033%=      5-min Rain = 0
KAM3 120426Z 16011KT M02/M16 A3017 RMK A01 T10191159  RH  033%=      5-min Rain = 0
KAM3 120427Z 16011KT M02/M16 A3017 RMK A01 T10191159  RH  033%=      5-min Rain = 0
KAM3 120428Z 16011KT M02/M16 A3017 RMK A01 T10191159  RH  033%=      5-min Rain = 0
KAM3 120429Z 16011KT M02/M16 A3017 RMK A01 T10191159  RH  033%=      5-min Rain = 0
KAM3 120430Z 16011KT M02/M16 A3017 RMK A01 T10201159  RH  034%=      5-min Rain = 0
KAM3 120431Z 16011KT M02/M16 A3017 RMK A01 T10201159  RH  034%=      5-min Rain = 0
KAM3 120432Z 16011KT M02/M16 A3017 RMK A01 T10211160  RH  034%=      5-min Rain = 0
KAM3 120433Z 16010KT M02/M16 A3017 RMK A01 T10221160  RH  034%=      5-min Rain = 0
KAM3 120434Z 16011KT M02/M16 A3017 RMK A01 T10211160  RH  034%=      5-min Rain = 0
KAM3 120435Z 16011KT M02/M16 A3018 RMK A01 T10211160  RH  034%=      5-min Rain = 0
KAM3 120436Z 16011KT M02/M16 A3018 RMK A01 T10221160  RH  034%=      5-min Rain = 0
KAM3 120437Z 16011KT M02/M16 A3018 RMK A01 T10231160  RH  034%=      5-min Rain = 0
KAM3 120438Z 16011KT M02/M16 A3018 RMK A01 T10241161  RH  034%=      5-min Rain = 0
KAM3 120439Z 16011KT M03/M16 A3018 RMK A01 T10251160  RH  034%=      5-min Rain = 0
KAM3 120440Z 16011KT M03/M16 A3018 RMK A01 T10251160  RH  035%=      5-min Rain = 0
KAM3 120441Z 16011KT M03/M16 A3018 RMK A01 T10251160  RH  035%=      5-min Rain = 0
KAM3 120442Z 16011KT M03/M16 A3018 RMK A01 T10261160  RH  035%=      5-min Rain = 0
KAM3 120443Z 16012KT M03/M16 A3018 RMK A01 T10261160  RH  035%=      5-min Rain = 0
KAM3 120444Z 16012KT M03/M16 A3018 RMK A01 T10261160  RH  035%=      5-min Rain = 0
KAM3 120445Z 16012KT M03/M16 A3018 RMK A01 T10261159  RH  035%=      5-min Rain = 0
KAM3 120446Z 16011KT M03/M16 A3018 RMK A01 T10261159  RH  035%=      5-min Rain = 0
KAM3 120447Z 16012KT M03/M16 A3018 RMK A01 T10261159  RH  035%=      5-min Rain = 0
KAM3 120448Z 16011KT M03/M16 A3018 RMK A01 T10261159  RH  035%=      5-min Rain = 0
KAM3 120449Z 16011KT M03/M16 A3018 RMK A01 T10261159  RH  035%=      5-min Rain = 0
KAM3 120450Z 16012KT M03/M16 A3018 RMK A01 T10261159  RH  035%=      5-min Rain = 0
KAM3 120451Z 16012KT M03/M16 A3018 RMK A01 T10251158  RH  035%=      5-min Rain = 0
KAM3 120452Z 16011KT M03/M16 A3018 RMK A01 T10251158  RH  035%=      5-min Rain = 0
KAM3 120453Z 16011KT M03/M16 A3018 RMK A01 T10251158  RH  035%=      5-min Rain = 0
KAM3 120454Z 16012KT M03/M16 A3018 RMK A01 T10251158  RH  035%=      5-min Rain = 0
KAM3 120455Z 16011KT M03/M16 A3018 RMK A01 T10261159  RH  035%=      5-min Rain = 0
KAM3 120456Z 16012KT M03/M16 A3018 RMK A01 T10271159  RH  035%=      5-min Rain = 0
KAM3 120457Z 16012KT M03/M16 A3018 RMK A01 T10271158  RH  036%=      5-min Rain = 0
KAM3 120458Z 16013KT M03/M16 A3018 RMK A01 T10271158  RH  036%=      5-min Rain = 0
KAM3 120459Z 16012KT M03/M16 A3018 RMK A01 T10271157  RH  036%=      5-min Rain = 0
KAM3 120500Z 16012KT M03/M16 A3018 RMK A01 T10261157  RH  036%=      5-min Rain = 0
KAM3 120501Z 16012KT M03/M16 A3018 RMK A01 T10261157  RH  036%=      5-min Rain = 0
KAM3 120502Z 16012KT M03/M16 A3018 RMK A01 T10251157  RH  036%=      5-min Rain = 0
KAM3 120503Z 16012KT M03/M16 A3018 RMK A01 T10251157  RH  035%=      5-min Rain = 0
KAM3 120504Z 16012KT M03/M16 A3018 RMK A01 T10251158  RH  035%=      5-min Rain = 0
KAM3 120505Z 16012KT M03/M16 A3018 RMK A01 T10261158  RH  035%=      5-min Rain = 0
KAM3 120506Z 16012KT M03/M16 A3018 RMK A01 T10261159  RH  035%=      5-min Rain = 0
KAM3 120507Z 16012KT M03/M16 A3018 RMK A01 T10271158  RH  036%=      5-min Rain = 0
KAM3 120508Z 16012KT M03/M16 A3018 RMK A01 T10271158  RH  036%=      5-min Rain = 0
KAM3 120509Z 16011KT M03/M16 A3018 RMK A01 T10281158  RH  036%=      5-min Rain = 0
KAM3 120510Z 16011KT M03/M16 A3018 RMK A01 T10291160  RH  036%=      5-min Rain = 0
KAM3 120511Z 16011KT M03/M16 A3018 RMK A01 T10301160  RH  036%=      5-min Rain = 0
KAM3 120512Z 16012KT M03/M16 A3018 RMK A01 T10311161  RH  036%=      5-min Rain = 0
KAM3 120513Z 16012KT M03/M16 A3018 RMK A01 T10321161  RH  036%=      5-min Rain = 0
KAM3 120514Z 16012KT M03/M16 A3018 RMK A01 T10321161  RH  036%=      5-min Rain = 0
KAM3 120515Z 16012KT M03/M16 A3019 RMK A01 T10331161  RH  036%=      5-min Rain = 0
KAM3 120516Z 16012KT M03/M16 A3019 RMK A01 T10331160  RH  037%=      5-min Rain = 0
KAM3 120517Z 16012KT M03/M16 A3019 RMK A01 T10331160  RH  037%=      5-min Rain = 0
KAM3 120518Z 16012KT M03/M16 A3019 RMK A01 T10331160  RH  037%=      5-min Rain = 0
KAM3 120519Z 16012KT M03/M16 A3019 RMK A01 T10331160  RH  037%=      5-min Rain = 0
KAM3 120520Z 16012KT M03/M16 A3018 RMK A01 T10331159  RH  037%=      5-min Rain = 0
KAM3 120521Z 16012KT M03/M16 A3018 RMK A01 T10321159  RH  037%=      5-min Rain = 0
KAM3 120522Z 16012KT M03/M16 A3018 RMK A01 T10321159  RH  037%=      5-min Rain = 0
KAM3 120523Z 16013KT M03/M16 A3018 RMK A01 T10321159  RH  037%=      5-min Rain = 0
KAM3 120524Z 16012KT M03/M16 A3018 RMK A01 T10321159  RH  037%=      5-min Rain = 0
KAM3 120525Z 16012KT M03/M16 A3019 RMK A01 T10321159  RH  037%=      5-min Rain = 0
KAM3 120526Z 16012KT M03/M16 A3019 RMK A01 T10321158  RH  037%=      5-min Rain = 0
KAM3 120527Z 16012KT M03/M16 A3019 RMK A01 T10321158  RH  037%=      5-min Rain = 0
KAM3 120528Z 16012KT M03/M16 A3019 RMK A01 T10331158  RH  037%=      5-min Rain = 0
KAM3 120529Z 16013KT M03/M16 A3019 RMK A01 T10331158  RH  037%=      5-min Rain = 0
KAM3 120530Z 16012KT M03/M16 A3019 RMK A01 T10331158  RH  037%=      5-min Rain = 0
KAM3 120531Z 16012KT M03/M16 A3019 RMK A01 T10331157  RH  038%=      5-min Rain = 0
KAM3 120532Z 16012KT M03/M16 A3019 RMK A01 T10341157  RH  038%=      5-min Rain = 0
KAM3 120533Z 16012KT M03/M16 A3019 RMK A01 T10341157  RH  038%=      5-min Rain = 0
KAM3 120534Z 16012KT M04/M16 A3019 RMK A01 T10351157  RH  038%=      5-min Rain = 0
KAM3 120535Z 16012KT M04/M16 A3019 RMK A01 T10351157  RH  038%=      5-min Rain = 0
KAM3 120536Z 16012KT M04/M16 A3019 RMK A01 T10361156  RH  039%=      5-min Rain = 0
KAM3 120537Z 16012KT M04/M16 A3019 RMK A01 T10351156  RH  039%=      5-min Rain = 0
KAM3 120538Z 16012KT M04/M16 A3019 RMK A01 T10351155  RH  039%=      5-min Rain = 0
KAM3 120539Z 16012KT M04/M16 A3019 RMK A01 T10361155  RH  039%=      5-min Rain = 0
KAM3 120540Z 16013KT M04/M16 A3019 RMK A01 T10351155  RH  039%=      5-min Rain = 0
KAM3 120541Z 16012KT M04/M15 A3019 RMK A01 T10351154  RH  039%=      5-min Rain = 0
KAM3 120542Z 16012KT M04/M15 A3019 RMK A01 T10351154  RH  039%=      5-min Rain = 0
KAM3 120543Z 16013KT M03/M15 A3019 RMK A01 T10341154  RH  039%=      5-min Rain = 0
KAM3 120544Z 16013KT M04/M15 A3019 RMK A01 T10351153  RH  039%=      5-min Rain = 0
KAM3 120545Z 16013KT M03/M15 A3019 RMK A01 T10341153  RH  039%=      5-min Rain = 0
KAM3 120546Z 16012KT M03/M15 A3019 RMK A01 T10331152  RH  039%=      5-min Rain = 0
KAM3 120547Z 16012KT M03/M15 A3019 RMK A01 T10331152  RH  039%=      5-min Rain = 0
KAM3 120548Z 16013KT M03/M15 A3019 RMK A01 T10331152  RH  039%=      5-min Rain = 0
KAM3 120549Z 16012KT M03/M15 A3019 RMK A01 T10331151  RH  039%=      5-min Rain = 0
KAM3 120550Z 16013KT M03/M15 A3019 RMK A01 T10321151  RH  039%=      5-min Rain = 0
KAM3 120551Z 16012KT M03/M15 A3019 RMK A01 T10311150  RH  039%=      5-min Rain = 0
KAM3 120552Z 16012KT M03/M15 A3019 RMK A01 T10311150  RH  039%=      5-min Rain = 0
KAM3 120553Z 16012KT M03/M15 A3019 RMK A01 T10311150  RH  039%=      5-min Rain = 0
KAM3 120554Z 16012KT M03/M15 A3019 RMK A01 T10311150  RH  039%=      5-min Rain = 0
KAM3 120555Z 16012KT M03/M15 A3019 RMK A01 T10311150  RH  039%=      5-min Rain = 0
KAM3 120556Z 16012KT M03/M15 A3019 RMK A01 T10321151  RH  040%=      5-min Rain = 0
KAM3 120557Z 16012KT M03/M15 A3019 RMK A01 T10321150  RH  040%=      5-min Rain = 0
KAM3 120558Z 16012KT M03/M15 A3019 RMK A01 T10321150  RH  040%=      5-min Rain = 0
KAM3 120559Z 16012KT M03/M15 A3019 RMK A01 T10321150  RH  040%=      5-min Rain = 0

Page generated in 0.0808 seconds.